<?xml version="1.0" encoding="UTF-8" standalone="no" ?>
<gpx xmlns="http://www.topografix.com/GPX/1/1" xmlns:xsi="http://www.w3.org/2001/XMLSchema-instance" xsi:schemaLocation="http://www.topografix.com/GPX/1/1 http://www.topografix.com/GPX/1/1/gpx.xsd" version="1.1" creator="VisuGPX - https://www.visugpx.com">
  <metadata>
    <name>098.Les Vallons et Plateaux de Vitrolles</name>
    <desc><![CDATA[Lien Facebook images et vidéos:]]></desc>
  </metadata>
  <trk>
    <name><![CDATA[00: circuit réserve tour plateau de Vitrolles.. modifier]]></name>
    <extensions>
      <line xmlns="http://www.topografix.com/GPX/gpx_style/0/2">
        <color>0000FF</color>
        <width>4</width>
      </line>
    </extensions>
    <trkseg>
      <trkpt lat="43.45578" lon="5.27602">
        <ele>129.9</ele>
        <time>2025-10-05T21:40:46Z</time>
      </trkpt>
      <trkpt lat="43.45585" lon="5.27604">
        <ele>130.2</ele>
        <time>2025-10-05T21:40:46Z</time>
      </trkpt>
      <trkpt lat="43.45586" lon="5.27598">
        <ele>130.3</ele>
        <time>2025-10-05T21:40:46Z</time>
      </trkpt>
      <trkpt lat="43.45587" lon="5.27593">
        <ele>131.1</ele>
        <time>2025-10-05T21:40:46Z</time>
      </trkpt>
      <trkpt lat="43.45587" lon="5.2757">
        <ele>131.6</ele>
        <time>2025-10-05T21:40:46Z</time>
      </trkpt>
      <trkpt lat="43.45587" lon="5.27564">
        <ele>131.6</ele>
        <time>2025-10-05T21:40:46Z</time>
      </trkpt>
      <trkpt lat="43.45593" lon="5.27544">
        <ele>132.1</ele>
        <time>2025-10-05T21:40:46Z</time>
      </trkpt>
      <trkpt lat="43.45597" lon="5.27535">
        <ele>132.5</ele>
        <time>2025-10-05T21:40:46Z</time>
      </trkpt>
      <trkpt lat="43.45597" lon="5.27518">
        <ele>132.2</ele>
        <time>2025-10-05T21:40:46Z</time>
      </trkpt>
      <trkpt lat="43.45598" lon="5.27514">
        <ele>132</ele>
        <time>2025-10-05T21:40:46Z</time>
      </trkpt>
      <trkpt lat="43.45599" lon="5.27511">
        <ele>131.9</ele>
        <time>2025-10-05T21:40:46Z</time>
      </trkpt>
      <trkpt lat="43.45603" lon="5.27506">
        <ele>131.4</ele>
        <time>2025-10-05T21:40:46Z</time>
      </trkpt>
      <trkpt lat="43.45615" lon="5.27496">
        <ele>130</ele>
        <time>2025-10-05T21:40:46Z</time>
      </trkpt>
      <trkpt lat="43.4562" lon="5.27493">
        <ele>129.7</ele>
        <time>2025-10-05T21:40:46Z</time>
      </trkpt>
      <trkpt lat="43.45633" lon="5.27487">
        <ele>128.9</ele>
        <time>2025-10-05T21:40:46Z</time>
      </trkpt>
      <trkpt lat="43.45645" lon="5.27483">
        <ele>127.1</ele>
        <time>2025-10-05T21:40:46Z</time>
      </trkpt>
      <trkpt lat="43.45666" lon="5.27474">
        <ele>125</ele>
        <time>2025-10-05T21:40:46Z</time>
      </trkpt>
      <trkpt lat="43.45671" lon="5.27474">
        <ele>122.2</ele>
        <time>2025-10-05T21:40:46Z</time>
      </trkpt>
      <trkpt lat="43.45707" lon="5.27482">
        <ele>121.7</ele>
        <time>2025-10-05T21:40:46Z</time>
      </trkpt>
      <trkpt lat="43.45711" lon="5.27482">
        <ele>120.3</ele>
        <time>2025-10-05T21:40:46Z</time>
      </trkpt>
      <trkpt lat="43.45719" lon="5.27479">
        <ele>120.5</ele>
        <time>2025-10-05T21:40:46Z</time>
      </trkpt>
      <trkpt lat="43.45727" lon="5.27477">
        <ele>120.3</ele>
        <time>2025-10-05T21:40:46Z</time>
      </trkpt>
      <trkpt lat="43.45734" lon="5.27476">
        <ele>120.8</ele>
        <time>2025-10-05T21:40:46Z</time>
      </trkpt>
      <trkpt lat="43.45756" lon="5.27476">
        <ele>121.4</ele>
        <time>2025-10-05T21:40:46Z</time>
      </trkpt>
      <trkpt lat="43.45772" lon="5.27475">
        <ele>123</ele>
        <time>2025-10-05T21:40:46Z</time>
      </trkpt>
      <trkpt lat="43.45802" lon="5.27482">
        <ele>124.7</ele>
        <time>2025-10-05T21:40:46Z</time>
      </trkpt>
      <trkpt lat="43.45822" lon="5.27482">
        <ele>127.8</ele>
        <time>2025-10-05T21:40:46Z</time>
      </trkpt>
      <trkpt lat="43.4584" lon="5.27478">
        <ele>129.9</ele>
        <time>2025-10-05T21:40:46Z</time>
      </trkpt>
      <trkpt lat="43.45841" lon="5.27474">
        <ele>132</ele>
        <time>2025-10-05T21:40:46Z</time>
      </trkpt>
      <trkpt lat="43.45842" lon="5.27469">
        <ele>132.2</ele>
        <time>2025-10-05T21:40:46Z</time>
      </trkpt>
      <trkpt lat="43.45843" lon="5.27462">
        <ele>132.8</ele>
        <time>2025-10-05T21:40:46Z</time>
      </trkpt>
      <trkpt lat="43.45843" lon="5.27453">
        <ele>134</ele>
        <time>2025-10-05T21:40:46Z</time>
      </trkpt>
      <trkpt lat="43.45841" lon="5.27449">
        <ele>134.8</ele>
        <time>2025-10-05T21:40:46Z</time>
      </trkpt>
      <trkpt lat="43.45837" lon="5.27445">
        <ele>135.1</ele>
        <time>2025-10-05T21:40:46Z</time>
      </trkpt>
      <trkpt lat="43.45831" lon="5.27443">
        <ele>135.3</ele>
        <time>2025-10-05T21:40:46Z</time>
      </trkpt>
      <trkpt lat="43.45823" lon="5.27442">
        <ele>135.3</ele>
        <time>2025-10-05T21:40:46Z</time>
      </trkpt>
      <trkpt lat="43.45818" lon="5.27438">
        <ele>135.4</ele>
        <time>2025-10-05T21:40:46Z</time>
      </trkpt>
      <trkpt lat="43.45809" lon="5.27428">
        <ele>135.3</ele>
        <time>2025-10-05T21:40:46Z</time>
      </trkpt>
      <trkpt lat="43.45805" lon="5.27422">
        <ele>135.4</ele>
        <time>2025-10-05T21:40:46Z</time>
      </trkpt>
      <trkpt lat="43.45798" lon="5.27411">
        <ele>135.6</ele>
        <time>2025-10-05T21:40:46Z</time>
      </trkpt>
      <trkpt lat="43.45796" lon="5.27404">
        <ele>135.7</ele>
        <time>2025-10-05T21:40:46Z</time>
      </trkpt>
      <trkpt lat="43.45795" lon="5.27392">
        <ele>136.2</ele>
        <time>2025-10-05T21:40:46Z</time>
      </trkpt>
      <trkpt lat="43.45795" lon="5.2738">
        <ele>136.2</ele>
        <time>2025-10-05T21:40:46Z</time>
      </trkpt>
      <trkpt lat="43.45796" lon="5.27366">
        <ele>136.6</ele>
        <time>2025-10-05T21:40:46Z</time>
      </trkpt>
      <trkpt lat="43.45802" lon="5.27342">
        <ele>136.9</ele>
        <time>2025-10-05T21:40:46Z</time>
      </trkpt>
      <trkpt lat="43.45806" lon="5.27317">
        <ele>137.1</ele>
        <time>2025-10-05T21:40:46Z</time>
      </trkpt>
      <trkpt lat="43.45807" lon="5.27301">
        <ele>137.9</ele>
        <time>2025-10-05T21:40:46Z</time>
      </trkpt>
      <trkpt lat="43.45807" lon="5.27285">
        <ele>137.7</ele>
        <time>2025-10-05T21:40:46Z</time>
      </trkpt>
      <trkpt lat="43.45807" lon="5.27269">
        <ele>138.5</ele>
        <time>2025-10-05T21:40:46Z</time>
      </trkpt>
      <trkpt lat="43.45809" lon="5.27256">
        <ele>140</ele>
        <time>2025-10-05T21:40:46Z</time>
      </trkpt>
      <trkpt lat="43.45814" lon="5.27246">
        <ele>141.6</ele>
        <time>2025-10-05T21:40:46Z</time>
      </trkpt>
      <trkpt lat="43.45821" lon="5.2724">
        <ele>143.1</ele>
        <time>2025-10-05T21:40:46Z</time>
      </trkpt>
      <trkpt lat="43.45832" lon="5.27226">
        <ele>143.9</ele>
        <time>2025-10-05T21:40:46Z</time>
      </trkpt>
      <trkpt lat="43.45839" lon="5.27214">
        <ele>144.7</ele>
        <time>2025-10-05T21:40:46Z</time>
      </trkpt>
      <trkpt lat="43.45847" lon="5.27197">
        <ele>145.9</ele>
        <time>2025-10-05T21:40:46Z</time>
      </trkpt>
      <trkpt lat="43.45852" lon="5.27191">
        <ele>147.3</ele>
        <time>2025-10-05T21:40:46Z</time>
      </trkpt>
      <trkpt lat="43.45857" lon="5.27183">
        <ele>147.8</ele>
        <time>2025-10-05T21:40:46Z</time>
      </trkpt>
      <trkpt lat="43.45861" lon="5.2718">
        <ele>147.6</ele>
        <time>2025-10-05T21:40:46Z</time>
      </trkpt>
      <trkpt lat="43.45864" lon="5.27178">
        <ele>146.9</ele>
        <time>2025-10-05T21:40:46Z</time>
      </trkpt>
      <trkpt lat="43.45873" lon="5.27173">
        <ele>146.4</ele>
        <time>2025-10-05T21:40:46Z</time>
      </trkpt>
      <trkpt lat="43.4588" lon="5.27164">
        <ele>146.4</ele>
        <time>2025-10-05T21:40:46Z</time>
      </trkpt>
      <trkpt lat="43.45883" lon="5.27159">
        <ele>146</ele>
        <time>2025-10-05T21:40:46Z</time>
      </trkpt>
      <trkpt lat="43.45888" lon="5.27148">
        <ele>145.6</ele>
        <time>2025-10-05T21:40:46Z</time>
      </trkpt>
      <trkpt lat="43.45898" lon="5.27115">
        <ele>145.1</ele>
        <time>2025-10-05T21:40:46Z</time>
      </trkpt>
      <trkpt lat="43.459" lon="5.27108">
        <ele>144.7</ele>
        <time>2025-10-05T21:40:46Z</time>
      </trkpt>
      <trkpt lat="43.45908" lon="5.27093">
        <ele>143.9</ele>
        <time>2025-10-05T21:40:46Z</time>
      </trkpt>
      <trkpt lat="43.4591" lon="5.27079">
        <ele>143.9</ele>
        <time>2025-10-05T21:40:46Z</time>
      </trkpt>
      <trkpt lat="43.45909" lon="5.27072">
        <ele>143.5</ele>
        <time>2025-10-05T21:40:46Z</time>
      </trkpt>
      <trkpt lat="43.45907" lon="5.27062">
        <ele>142.9</ele>
        <time>2025-10-05T21:40:46Z</time>
      </trkpt>
      <trkpt lat="43.45907" lon="5.27058">
        <ele>142</ele>
        <time>2025-10-05T21:40:46Z</time>
      </trkpt>
      <trkpt lat="43.45907" lon="5.27054">
        <ele>141.6</ele>
        <time>2025-10-05T21:40:46Z</time>
      </trkpt>
      <trkpt lat="43.45912" lon="5.27047">
        <ele>140.1</ele>
        <time>2025-10-05T21:40:46Z</time>
      </trkpt>
      <trkpt lat="43.45916" lon="5.27042">
        <ele>139.9</ele>
        <time>2025-10-05T21:40:46Z</time>
      </trkpt>
      <trkpt lat="43.4592" lon="5.27035">
        <ele>139.3</ele>
        <time>2025-10-05T21:40:46Z</time>
      </trkpt>
      <trkpt lat="43.45926" lon="5.27024">
        <ele>138.3</ele>
        <time>2025-10-05T21:40:46Z</time>
      </trkpt>
      <trkpt lat="43.45928" lon="5.2702">
        <ele>137.9</ele>
        <time>2025-10-05T21:40:46Z</time>
      </trkpt>
      <trkpt lat="43.45925" lon="5.27011">
        <ele>137.6</ele>
        <time>2025-10-05T21:40:46Z</time>
      </trkpt>
      <trkpt lat="43.45925" lon="5.27006">
        <ele>137.3</ele>
        <time>2025-10-05T21:40:46Z</time>
      </trkpt>
      <trkpt lat="43.45925" lon="5.27002">
        <ele>137.1</ele>
        <time>2025-10-05T21:40:46Z</time>
      </trkpt>
      <trkpt lat="43.45925" lon="5.26996">
        <ele>136.1</ele>
        <time>2025-10-05T21:40:46Z</time>
      </trkpt>
      <trkpt lat="43.45926" lon="5.26993">
        <ele>135.3</ele>
        <time>2025-10-05T21:40:46Z</time>
      </trkpt>
      <trkpt lat="43.45927" lon="5.26991">
        <ele>136</ele>
        <time>2025-10-05T21:40:46Z</time>
      </trkpt>
      <trkpt lat="43.45932" lon="5.26968">
        <ele>137.9</ele>
        <time>2025-10-05T21:40:46Z</time>
      </trkpt>
      <trkpt lat="43.45934" lon="5.26953">
        <ele>137.6</ele>
        <time>2025-10-05T21:40:46Z</time>
      </trkpt>
      <trkpt lat="43.45934" lon="5.26944">
        <ele>138.6</ele>
        <time>2025-10-05T21:40:46Z</time>
      </trkpt>
      <trkpt lat="43.45934" lon="5.26935">
        <ele>141.8</ele>
        <time>2025-10-05T21:40:46Z</time>
      </trkpt>
      <trkpt lat="43.45933" lon="5.26917">
        <ele>143.8</ele>
        <time>2025-10-05T21:40:46Z</time>
      </trkpt>
      <trkpt lat="43.45929" lon="5.26899">
        <ele>144.6</ele>
        <time>2025-10-05T21:40:46Z</time>
      </trkpt>
      <trkpt lat="43.45922" lon="5.26877">
        <ele>145.5</ele>
        <time>2025-10-05T21:40:46Z</time>
      </trkpt>
      <trkpt lat="43.45916" lon="5.26856">
        <ele>147.5</ele>
        <time>2025-10-05T21:40:46Z</time>
      </trkpt>
      <trkpt lat="43.45913" lon="5.26844">
        <ele>148.9</ele>
        <time>2025-10-05T21:40:46Z</time>
      </trkpt>
      <trkpt lat="43.45911" lon="5.26821">
        <ele>150.4</ele>
        <time>2025-10-05T21:40:46Z</time>
      </trkpt>
      <trkpt lat="43.45905" lon="5.26793">
        <ele>152.3</ele>
        <time>2025-10-05T21:40:46Z</time>
      </trkpt>
      <trkpt lat="43.45901" lon="5.26782">
        <ele>152.5</ele>
        <time>2025-10-05T21:40:46Z</time>
      </trkpt>
      <trkpt lat="43.45896" lon="5.26772">
        <ele>151.8</ele>
        <time>2025-10-05T21:40:46Z</time>
      </trkpt>
      <trkpt lat="43.45886" lon="5.26761">
        <ele>151.5</ele>
        <time>2025-10-05T21:40:46Z</time>
      </trkpt>
      <trkpt lat="43.45881" lon="5.26753">
        <ele>151.5</ele>
        <time>2025-10-05T21:40:46Z</time>
      </trkpt>
      <trkpt lat="43.45878" lon="5.26748">
        <ele>151.9</ele>
        <time>2025-10-05T21:40:46Z</time>
      </trkpt>
      <trkpt lat="43.45873" lon="5.26708">
        <ele>152.6</ele>
        <time>2025-10-05T21:40:46Z</time>
      </trkpt>
      <trkpt lat="43.45872" lon="5.2669">
        <ele>153.4</ele>
        <time>2025-10-05T21:40:46Z</time>
      </trkpt>
      <trkpt lat="43.4587" lon="5.26674">
        <ele>154.1</ele>
        <time>2025-10-05T21:40:46Z</time>
      </trkpt>
      <trkpt lat="43.4587" lon="5.2666">
        <ele>157.4</ele>
        <time>2025-10-05T21:40:46Z</time>
      </trkpt>
      <trkpt lat="43.4587" lon="5.26674">
        <ele>158.2</ele>
        <time>2025-10-05T21:40:46Z</time>
      </trkpt>
      <trkpt lat="43.45863" lon="5.26674">
        <ele>158.6</ele>
        <time>2025-10-05T21:40:46Z</time>
      </trkpt>
      <trkpt lat="43.45859" lon="5.26674">
        <ele>158.7</ele>
        <time>2025-10-05T21:40:46Z</time>
      </trkpt>
      <trkpt lat="43.45856" lon="5.26674">
        <ele>158.3</ele>
        <time>2025-10-05T21:40:46Z</time>
      </trkpt>
      <trkpt lat="43.45852" lon="5.26676">
        <ele>158.7</ele>
        <time>2025-10-05T21:40:46Z</time>
      </trkpt>
      <trkpt lat="43.45847" lon="5.26675">
        <ele>158.6</ele>
        <time>2025-10-05T21:40:46Z</time>
      </trkpt>
      <trkpt lat="43.45844" lon="5.26672">
        <ele>158.3</ele>
        <time>2025-10-05T21:40:46Z</time>
      </trkpt>
      <trkpt lat="43.45839" lon="5.26676">
        <ele>157.8</ele>
        <time>2025-10-05T21:40:46Z</time>
      </trkpt>
      <trkpt lat="43.45829" lon="5.26679">
        <ele>157.5</ele>
        <time>2025-10-05T21:40:46Z</time>
      </trkpt>
      <trkpt lat="43.45823" lon="5.26681">
        <ele>157.3</ele>
        <time>2025-10-05T21:40:46Z</time>
      </trkpt>
      <trkpt lat="43.45818" lon="5.26686">
        <ele>157.1</ele>
        <time>2025-10-05T21:40:46Z</time>
      </trkpt>
      <trkpt lat="43.45815" lon="5.26688">
        <ele>157</ele>
        <time>2025-10-05T21:40:46Z</time>
      </trkpt>
      <trkpt lat="43.45813" lon="5.2669">
        <ele>156.7</ele>
        <time>2025-10-05T21:40:46Z</time>
      </trkpt>
      <trkpt lat="43.45804" lon="5.26688">
        <ele>156.4</ele>
        <time>2025-10-05T21:40:46Z</time>
      </trkpt>
      <trkpt lat="43.45798" lon="5.26689">
        <ele>156.2</ele>
        <time>2025-10-05T21:40:46Z</time>
      </trkpt>
      <trkpt lat="43.45782" lon="5.26701">
        <ele>155.9</ele>
        <time>2025-10-05T21:40:46Z</time>
      </trkpt>
      <trkpt lat="43.45774" lon="5.26706">
        <ele>156</ele>
        <time>2025-10-05T21:40:46Z</time>
      </trkpt>
      <trkpt lat="43.45769" lon="5.26709">
        <ele>155.8</ele>
        <time>2025-10-05T21:40:46Z</time>
      </trkpt>
      <trkpt lat="43.45767" lon="5.26717">
        <ele>155.1</ele>
        <time>2025-10-05T21:40:46Z</time>
      </trkpt>
      <trkpt lat="43.45763" lon="5.26725">
        <ele>154.6</ele>
        <time>2025-10-05T21:40:46Z</time>
      </trkpt>
      <trkpt lat="43.45757" lon="5.26731">
        <ele>153.7</ele>
        <time>2025-10-05T21:40:46Z</time>
      </trkpt>
      <trkpt lat="43.45755" lon="5.26739">
        <ele>153.2</ele>
        <time>2025-10-05T21:40:46Z</time>
      </trkpt>
      <trkpt lat="43.45755" lon="5.26753">
        <ele>153.1</ele>
        <time>2025-10-05T21:40:46Z</time>
      </trkpt>
      <trkpt lat="43.45754" lon="5.26762">
        <ele>153.1</ele>
        <time>2025-10-05T21:40:46Z</time>
      </trkpt>
      <trkpt lat="43.45744" lon="5.26784">
        <ele>152.9</ele>
        <time>2025-10-05T21:40:46Z</time>
      </trkpt>
      <trkpt lat="43.45735" lon="5.26802">
        <ele>152.6</ele>
        <time>2025-10-05T21:40:46Z</time>
      </trkpt>
      <trkpt lat="43.45731" lon="5.2681">
        <ele>152.6</ele>
        <time>2025-10-05T21:40:46Z</time>
      </trkpt>
      <trkpt lat="43.45728" lon="5.26821">
        <ele>152.4</ele>
        <time>2025-10-05T21:40:46Z</time>
      </trkpt>
      <trkpt lat="43.45713" lon="5.26816">
        <ele>152.3</ele>
        <time>2025-10-05T21:40:46Z</time>
      </trkpt>
      <trkpt lat="43.45706" lon="5.26815">
        <ele>151.3</ele>
        <time>2025-10-05T21:40:46Z</time>
      </trkpt>
      <trkpt lat="43.45701" lon="5.26814">
        <ele>150.7</ele>
        <time>2025-10-05T21:40:46Z</time>
      </trkpt>
      <trkpt lat="43.45697" lon="5.26812">
        <ele>150.5</ele>
        <time>2025-10-05T21:40:46Z</time>
      </trkpt>
      <trkpt lat="43.4569" lon="5.26811">
        <ele>150.3</ele>
        <time>2025-10-05T21:40:46Z</time>
      </trkpt>
      <trkpt lat="43.45686" lon="5.26813">
        <ele>150.1</ele>
        <time>2025-10-05T21:40:46Z</time>
      </trkpt>
      <trkpt lat="43.45682" lon="5.26819">
        <ele>150.3</ele>
        <time>2025-10-05T21:40:46Z</time>
      </trkpt>
      <trkpt lat="43.45679" lon="5.26822">
        <ele>149.4</ele>
        <time>2025-10-05T21:40:46Z</time>
      </trkpt>
      <trkpt lat="43.45672" lon="5.26823">
        <ele>148.4</ele>
        <time>2025-10-05T21:40:46Z</time>
      </trkpt>
      <trkpt lat="43.45666" lon="5.26826">
        <ele>148</ele>
        <time>2025-10-05T21:40:46Z</time>
      </trkpt>
      <trkpt lat="43.4566" lon="5.26825">
        <ele>147.7</ele>
        <time>2025-10-05T21:40:46Z</time>
      </trkpt>
      <trkpt lat="43.45657" lon="5.26823">
        <ele>147.8</ele>
        <time>2025-10-05T21:40:46Z</time>
      </trkpt>
      <trkpt lat="43.45652" lon="5.26818">
        <ele>146.6</ele>
        <time>2025-10-05T21:40:46Z</time>
      </trkpt>
      <trkpt lat="43.45648" lon="5.26817">
        <ele>145.6</ele>
        <time>2025-10-05T21:40:46Z</time>
      </trkpt>
      <trkpt lat="43.45642" lon="5.26818">
        <ele>145.3</ele>
        <time>2025-10-05T21:40:46Z</time>
      </trkpt>
      <trkpt lat="43.45637" lon="5.2682">
        <ele>144.7</ele>
        <time>2025-10-05T21:40:46Z</time>
      </trkpt>
      <trkpt lat="43.45632" lon="5.26821">
        <ele>144.8</ele>
        <time>2025-10-05T21:40:46Z</time>
      </trkpt>
      <trkpt lat="43.45628" lon="5.26823">
        <ele>144.4</ele>
        <time>2025-10-05T21:40:46Z</time>
      </trkpt>
      <trkpt lat="43.45623" lon="5.26828">
        <ele>143.1</ele>
        <time>2025-10-05T21:40:46Z</time>
      </trkpt>
      <trkpt lat="43.45613" lon="5.26836">
        <ele>142.2</ele>
        <time>2025-10-05T21:40:46Z</time>
      </trkpt>
      <trkpt lat="43.45605" lon="5.26845">
        <ele>142</ele>
        <time>2025-10-05T21:40:46Z</time>
      </trkpt>
      <trkpt lat="43.45595" lon="5.26857">
        <ele>142</ele>
        <time>2025-10-05T21:40:46Z</time>
      </trkpt>
      <trkpt lat="43.45589" lon="5.26862">
        <ele>142</ele>
        <time>2025-10-05T21:40:46Z</time>
      </trkpt>
      <trkpt lat="43.45585" lon="5.26864">
        <ele>142.2</ele>
        <time>2025-10-05T21:40:46Z</time>
      </trkpt>
      <trkpt lat="43.45582" lon="5.26868">
        <ele>141.7</ele>
        <time>2025-10-05T21:40:46Z</time>
      </trkpt>
      <trkpt lat="43.45581" lon="5.26873">
        <ele>141.4</ele>
        <time>2025-10-05T21:40:46Z</time>
      </trkpt>
      <trkpt lat="43.4558" lon="5.26875">
        <ele>140.4</ele>
        <time>2025-10-05T21:40:46Z</time>
      </trkpt>
      <trkpt lat="43.45578" lon="5.26875">
        <ele>139.9</ele>
        <time>2025-10-05T21:40:46Z</time>
      </trkpt>
      <trkpt lat="43.45576" lon="5.26877">
        <ele>139.7</ele>
        <time>2025-10-05T21:40:46Z</time>
      </trkpt>
      <trkpt lat="43.45573" lon="5.26878">
        <ele>139.3</ele>
        <time>2025-10-05T21:40:46Z</time>
      </trkpt>
      <trkpt lat="43.45569" lon="5.2688">
        <ele>139.2</ele>
        <time>2025-10-05T21:40:46Z</time>
      </trkpt>
      <trkpt lat="43.45567" lon="5.26881">
        <ele>139.2</ele>
        <time>2025-10-05T21:40:46Z</time>
      </trkpt>
      <trkpt lat="43.45564" lon="5.26882">
        <ele>139.1</ele>
        <time>2025-10-05T21:40:46Z</time>
      </trkpt>
      <trkpt lat="43.45535" lon="5.26884">
        <ele>139.1</ele>
        <time>2025-10-05T21:40:46Z</time>
      </trkpt>
      <trkpt lat="43.45523" lon="5.26887">
        <ele>139.1</ele>
        <time>2025-10-05T21:40:46Z</time>
      </trkpt>
      <trkpt lat="43.45511" lon="5.26909">
        <ele>139.1</ele>
        <time>2025-10-05T21:40:46Z</time>
      </trkpt>
      <trkpt lat="43.45498" lon="5.26924">
        <ele>138.9</ele>
        <time>2025-10-05T21:40:46Z</time>
      </trkpt>
      <trkpt lat="43.45491" lon="5.26928">
        <ele>138.2</ele>
        <time>2025-10-05T21:40:46Z</time>
      </trkpt>
      <trkpt lat="43.45485" lon="5.26924">
        <ele>137.4</ele>
        <time>2025-10-05T21:40:46Z</time>
      </trkpt>
      <trkpt lat="43.4548" lon="5.26924">
        <ele>138</ele>
        <time>2025-10-05T21:40:46Z</time>
      </trkpt>
      <trkpt lat="43.45471" lon="5.26925">
        <ele>137</ele>
        <time>2025-10-05T21:40:46Z</time>
      </trkpt>
      <trkpt lat="43.45464" lon="5.2693">
        <ele>132.4</ele>
        <time>2025-10-05T21:40:46Z</time>
      </trkpt>
      <trkpt lat="43.45452" lon="5.26936">
        <ele>129.2</ele>
        <time>2025-10-05T21:40:46Z</time>
      </trkpt>
      <trkpt lat="43.45443" lon="5.26941">
        <ele>127.3</ele>
        <time>2025-10-05T21:40:46Z</time>
      </trkpt>
      <trkpt lat="43.45436" lon="5.26947">
        <ele>125.5</ele>
        <time>2025-10-05T21:40:46Z</time>
      </trkpt>
      <trkpt lat="43.45431" lon="5.26953">
        <ele>125</ele>
        <time>2025-10-05T21:40:46Z</time>
      </trkpt>
      <trkpt lat="43.45428" lon="5.26957">
        <ele>124.1</ele>
        <time>2025-10-05T21:40:46Z</time>
      </trkpt>
      <trkpt lat="43.45423" lon="5.26968">
        <ele>123.5</ele>
        <time>2025-10-05T21:40:46Z</time>
      </trkpt>
      <trkpt lat="43.45416" lon="5.26984">
        <ele>122.7</ele>
        <time>2025-10-05T21:40:46Z</time>
      </trkpt>
      <trkpt lat="43.45403" lon="5.27008">
        <ele>122.2</ele>
        <time>2025-10-05T21:40:46Z</time>
      </trkpt>
      <trkpt lat="43.45395" lon="5.2702">
        <ele>121.3</ele>
        <time>2025-10-05T21:40:46Z</time>
      </trkpt>
      <trkpt lat="43.45388" lon="5.27035">
        <ele>121.6</ele>
        <time>2025-10-05T21:40:46Z</time>
      </trkpt>
      <trkpt lat="43.45377" lon="5.27054">
        <ele>120.1</ele>
        <time>2025-10-05T21:40:46Z</time>
      </trkpt>
      <trkpt lat="43.45371" lon="5.27056">
        <ele>120.1</ele>
        <time>2025-10-05T21:40:46Z</time>
      </trkpt>
      <trkpt lat="43.45362" lon="5.2706">
        <ele>120</ele>
        <time>2025-10-05T21:40:46Z</time>
      </trkpt>
      <trkpt lat="43.45353" lon="5.27067">
        <ele>119.1</ele>
        <time>2025-10-05T21:40:46Z</time>
      </trkpt>
      <trkpt lat="43.4533" lon="5.27088">
        <ele>119.1</ele>
        <time>2025-10-05T21:40:46Z</time>
      </trkpt>
      <trkpt lat="43.45311" lon="5.27104">
        <ele>117.6</ele>
        <time>2025-10-05T21:40:46Z</time>
      </trkpt>
      <trkpt lat="43.45301" lon="5.27114">
        <ele>116.8</ele>
        <time>2025-10-05T21:40:46Z</time>
      </trkpt>
      <trkpt lat="43.45286" lon="5.27129">
        <ele>116.4</ele>
        <time>2025-10-05T21:40:46Z</time>
      </trkpt>
      <trkpt lat="43.4526" lon="5.2715">
        <ele>116.7</ele>
        <time>2025-10-05T21:40:46Z</time>
      </trkpt>
      <trkpt lat="43.45243" lon="5.27166">
        <ele>115.8</ele>
        <time>2025-10-05T21:40:46Z</time>
      </trkpt>
      <trkpt lat="43.45218" lon="5.27184">
        <ele>115.3</ele>
        <time>2025-10-05T21:40:46Z</time>
      </trkpt>
      <trkpt lat="43.45212" lon="5.27188">
        <ele>115</ele>
        <time>2025-10-05T21:40:46Z</time>
      </trkpt>
      <trkpt lat="43.45201" lon="5.27195">
        <ele>115</ele>
        <time>2025-10-05T21:40:46Z</time>
      </trkpt>
      <trkpt lat="43.4519" lon="5.27197">
        <ele>114.2</ele>
        <time>2025-10-05T21:40:46Z</time>
      </trkpt>
      <trkpt lat="43.45176" lon="5.27198">
        <ele>112.6</ele>
        <time>2025-10-05T21:40:46Z</time>
      </trkpt>
      <trkpt lat="43.45163" lon="5.27199">
        <ele>112.1</ele>
        <time>2025-10-05T21:40:46Z</time>
      </trkpt>
      <trkpt lat="43.45154" lon="5.27201">
        <ele>112.4</ele>
        <time>2025-10-05T21:40:46Z</time>
      </trkpt>
      <trkpt lat="43.45152" lon="5.27196">
        <ele>110.9</ele>
        <time>2025-10-05T21:40:46Z</time>
      </trkpt>
      <trkpt lat="43.45148" lon="5.27188">
        <ele>110.8</ele>
        <time>2025-10-05T21:40:46Z</time>
      </trkpt>
      <trkpt lat="43.45143" lon="5.27182">
        <ele>108.8</ele>
        <time>2025-10-05T21:40:46Z</time>
      </trkpt>
      <trkpt lat="43.45137" lon="5.2718">
        <ele>108.3</ele>
        <time>2025-10-05T21:40:46Z</time>
      </trkpt>
      <trkpt lat="43.45128" lon="5.27182">
        <ele>108</ele>
        <time>2025-10-05T21:40:46Z</time>
      </trkpt>
      <trkpt lat="43.45124" lon="5.27184">
        <ele>106.9</ele>
        <time>2025-10-05T21:40:46Z</time>
      </trkpt>
      <trkpt lat="43.45121" lon="5.27182">
        <ele>106.5</ele>
        <time>2025-10-05T21:40:46Z</time>
      </trkpt>
      <trkpt lat="43.45114" lon="5.27176">
        <ele>105.8</ele>
        <time>2025-10-05T21:40:46Z</time>
      </trkpt>
      <trkpt lat="43.45105" lon="5.27163">
        <ele>104.9</ele>
        <time>2025-10-05T21:40:46Z</time>
      </trkpt>
      <trkpt lat="43.45097" lon="5.27152">
        <ele>104.8</ele>
        <time>2025-10-05T21:40:46Z</time>
      </trkpt>
      <trkpt lat="43.45088" lon="5.27139">
        <ele>104.9</ele>
        <time>2025-10-05T21:40:46Z</time>
      </trkpt>
      <trkpt lat="43.45077" lon="5.27129">
        <ele>104.3</ele>
        <time>2025-10-05T21:40:46Z</time>
      </trkpt>
      <trkpt lat="43.45063" lon="5.27115">
        <ele>103.3</ele>
        <time>2025-10-05T21:40:46Z</time>
      </trkpt>
      <trkpt lat="43.45052" lon="5.27106">
        <ele>104.3</ele>
        <time>2025-10-05T21:40:46Z</time>
      </trkpt>
      <trkpt lat="43.45048" lon="5.27101">
        <ele>105</ele>
        <time>2025-10-05T21:40:46Z</time>
      </trkpt>
      <trkpt lat="43.45046" lon="5.27082">
        <ele>105.3</ele>
        <time>2025-10-05T21:40:46Z</time>
      </trkpt>
      <trkpt lat="43.45046" lon="5.27075">
        <ele>105.1</ele>
        <time>2025-10-05T21:40:46Z</time>
      </trkpt>
      <trkpt lat="43.45048" lon="5.27058">
        <ele>104.8</ele>
        <time>2025-10-05T21:40:46Z</time>
      </trkpt>
      <trkpt lat="43.45049" lon="5.27051">
        <ele>104.6</ele>
        <time>2025-10-05T21:40:46Z</time>
      </trkpt>
      <trkpt lat="43.45055" lon="5.27028">
        <ele>104.9</ele>
        <time>2025-10-05T21:40:46Z</time>
      </trkpt>
      <trkpt lat="43.45057" lon="5.27021">
        <ele>104.5</ele>
        <time>2025-10-05T21:40:46Z</time>
      </trkpt>
      <trkpt lat="43.4506" lon="5.27014">
        <ele>104.8</ele>
        <time>2025-10-05T21:40:46Z</time>
      </trkpt>
      <trkpt lat="43.45064" lon="5.27002">
        <ele>105.4</ele>
        <time>2025-10-05T21:40:46Z</time>
      </trkpt>
      <trkpt lat="43.45067" lon="5.26994">
        <ele>105.2</ele>
        <time>2025-10-05T21:40:46Z</time>
      </trkpt>
      <trkpt lat="43.45072" lon="5.26978">
        <ele>104.7</ele>
        <time>2025-10-05T21:40:46Z</time>
      </trkpt>
      <trkpt lat="43.45077" lon="5.26966">
        <ele>104.8</ele>
        <time>2025-10-05T21:40:46Z</time>
      </trkpt>
      <trkpt lat="43.45084" lon="5.26943">
        <ele>105.8</ele>
        <time>2025-10-05T21:40:46Z</time>
      </trkpt>
      <trkpt lat="43.45092" lon="5.26914">
        <ele>106.1</ele>
        <time>2025-10-05T21:40:46Z</time>
      </trkpt>
      <trkpt lat="43.45126" lon="5.26778">
        <ele>106.6</ele>
        <time>2025-10-05T21:40:46Z</time>
      </trkpt>
      <trkpt lat="43.45131" lon="5.26743">
        <ele>107</ele>
        <time>2025-10-05T21:40:46Z</time>
      </trkpt>
      <trkpt lat="43.45139" lon="5.26708">
        <ele>108</ele>
        <time>2025-10-05T21:40:46Z</time>
      </trkpt>
      <trkpt lat="43.45154" lon="5.26649">
        <ele>107.8</ele>
        <time>2025-10-05T21:40:46Z</time>
      </trkpt>
      <trkpt lat="43.45158" lon="5.26629">
        <ele>108.3</ele>
        <time>2025-10-05T21:40:46Z</time>
      </trkpt>
      <trkpt lat="43.45165" lon="5.2655">
        <ele>108.7</ele>
        <time>2025-10-05T21:40:46Z</time>
      </trkpt>
      <trkpt lat="43.4517" lon="5.26504">
        <ele>108.8</ele>
        <time>2025-10-05T21:40:46Z</time>
      </trkpt>
      <trkpt lat="43.45179" lon="5.26466">
        <ele>109.9</ele>
        <time>2025-10-05T21:40:46Z</time>
      </trkpt>
      <trkpt lat="43.45184" lon="5.26437">
        <ele>110.5</ele>
        <time>2025-10-05T21:40:46Z</time>
      </trkpt>
      <trkpt lat="43.45187" lon="5.26409">
        <ele>111.2</ele>
        <time>2025-10-05T21:40:46Z</time>
      </trkpt>
      <trkpt lat="43.45188" lon="5.264">
        <ele>112.3</ele>
        <time>2025-10-05T21:40:46Z</time>
      </trkpt>
      <trkpt lat="43.45187" lon="5.26385">
        <ele>116.3</ele>
        <time>2025-10-05T21:40:46Z</time>
      </trkpt>
      <trkpt lat="43.45192" lon="5.26353">
        <ele>117.3</ele>
        <time>2025-10-05T21:40:46Z</time>
      </trkpt>
      <trkpt lat="43.45205" lon="5.26314">
        <ele>118.3</ele>
        <time>2025-10-05T21:40:46Z</time>
      </trkpt>
      <trkpt lat="43.45268" lon="5.26223">
        <ele>120.3</ele>
        <time>2025-10-05T21:40:46Z</time>
      </trkpt>
      <trkpt lat="43.45281" lon="5.26206">
        <ele>120.9</ele>
        <time>2025-10-05T21:40:46Z</time>
      </trkpt>
      <trkpt lat="43.45294" lon="5.26199">
        <ele>123.5</ele>
        <time>2025-10-05T21:40:46Z</time>
      </trkpt>
      <trkpt lat="43.45304" lon="5.26195">
        <ele>125.5</ele>
        <time>2025-10-05T21:40:46Z</time>
      </trkpt>
      <trkpt lat="43.45317" lon="5.26187">
        <ele>126.6</ele>
        <time>2025-10-05T21:40:46Z</time>
      </trkpt>
      <trkpt lat="43.45321" lon="5.26184">
        <ele>126.7</ele>
        <time>2025-10-05T21:40:46Z</time>
      </trkpt>
      <trkpt lat="43.45327" lon="5.26177">
        <ele>127.2</ele>
        <time>2025-10-05T21:40:46Z</time>
      </trkpt>
      <trkpt lat="43.45335" lon="5.26171">
        <ele>127.6</ele>
        <time>2025-10-05T21:40:46Z</time>
      </trkpt>
      <trkpt lat="43.45369" lon="5.26149">
        <ele>127.7</ele>
        <time>2025-10-05T21:40:46Z</time>
      </trkpt>
      <trkpt lat="43.45373" lon="5.26145">
        <ele>129.7</ele>
        <time>2025-10-05T21:40:46Z</time>
      </trkpt>
      <trkpt lat="43.45379" lon="5.26137">
        <ele>130.7</ele>
        <time>2025-10-05T21:40:46Z</time>
      </trkpt>
      <trkpt lat="43.45382" lon="5.26132">
        <ele>134.4</ele>
        <time>2025-10-05T21:40:46Z</time>
      </trkpt>
      <trkpt lat="43.45383" lon="5.26127">
        <ele>135</ele>
        <time>2025-10-05T21:40:46Z</time>
      </trkpt>
      <trkpt lat="43.4539" lon="5.26099">
        <ele>136.3</ele>
        <time>2025-10-05T21:40:46Z</time>
      </trkpt>
      <trkpt lat="43.45394" lon="5.26079">
        <ele>137.9</ele>
        <time>2025-10-05T21:40:46Z</time>
      </trkpt>
      <trkpt lat="43.454" lon="5.26052">
        <ele>138.6</ele>
        <time>2025-10-05T21:40:46Z</time>
      </trkpt>
      <trkpt lat="43.45404" lon="5.26024">
        <ele>138.6</ele>
        <time>2025-10-05T21:40:46Z</time>
      </trkpt>
      <trkpt lat="43.45408" lon="5.26006">
        <ele>138.6</ele>
        <time>2025-10-05T21:40:46Z</time>
      </trkpt>
      <trkpt lat="43.4541" lon="5.26">
        <ele>138.4</ele>
        <time>2025-10-05T21:40:46Z</time>
      </trkpt>
      <trkpt lat="43.45422" lon="5.25975">
        <ele>140.6</ele>
        <time>2025-10-05T21:40:46Z</time>
      </trkpt>
      <trkpt lat="43.45425" lon="5.25971">
        <ele>140.8</ele>
        <time>2025-10-05T21:40:46Z</time>
      </trkpt>
      <trkpt lat="43.45428" lon="5.25967">
        <ele>140.9</ele>
        <time>2025-10-05T21:40:46Z</time>
      </trkpt>
      <trkpt lat="43.45432" lon="5.25965">
        <ele>141</ele>
        <time>2025-10-05T21:40:46Z</time>
      </trkpt>
      <trkpt lat="43.45434" lon="5.25966">
        <ele>140.7</ele>
        <time>2025-10-05T21:40:46Z</time>
      </trkpt>
      <trkpt lat="43.45437" lon="5.25969">
        <ele>141</ele>
        <time>2025-10-05T21:40:46Z</time>
      </trkpt>
      <trkpt lat="43.4544" lon="5.2597">
        <ele>141.4</ele>
        <time>2025-10-05T21:40:46Z</time>
      </trkpt>
      <trkpt lat="43.45461" lon="5.25963">
        <ele>141.4</ele>
        <time>2025-10-05T21:40:46Z</time>
      </trkpt>
      <trkpt lat="43.4548" lon="5.2596">
        <ele>141.5</ele>
        <time>2025-10-05T21:40:46Z</time>
      </trkpt>
      <trkpt lat="43.45496" lon="5.25956">
        <ele>142</ele>
        <time>2025-10-05T21:40:46Z</time>
      </trkpt>
      <trkpt lat="43.45512" lon="5.25947">
        <ele>142.4</ele>
        <time>2025-10-05T21:40:46Z</time>
      </trkpt>
      <trkpt lat="43.4552" lon="5.25945">
        <ele>142.5</ele>
        <time>2025-10-05T21:40:46Z</time>
      </trkpt>
      <trkpt lat="43.45536" lon="5.25943">
        <ele>143.6</ele>
        <time>2025-10-05T21:40:46Z</time>
      </trkpt>
      <trkpt lat="43.45572" lon="5.25943">
        <ele>143.9</ele>
        <time>2025-10-05T21:40:46Z</time>
      </trkpt>
      <trkpt lat="43.45579" lon="5.2594">
        <ele>143.8</ele>
        <time>2025-10-05T21:40:46Z</time>
      </trkpt>
      <trkpt lat="43.45583" lon="5.25938">
        <ele>144</ele>
        <time>2025-10-05T21:40:46Z</time>
      </trkpt>
      <trkpt lat="43.45592" lon="5.25925">
        <ele>144</ele>
        <time>2025-10-05T21:40:46Z</time>
      </trkpt>
      <trkpt lat="43.45598" lon="5.25918">
        <ele>144</ele>
        <time>2025-10-05T21:40:46Z</time>
      </trkpt>
      <trkpt lat="43.45608" lon="5.25912">
        <ele>144</ele>
        <time>2025-10-05T21:40:46Z</time>
      </trkpt>
      <trkpt lat="43.45619" lon="5.25901">
        <ele>145.1</ele>
        <time>2025-10-05T21:40:46Z</time>
      </trkpt>
      <trkpt lat="43.45631" lon="5.25877">
        <ele>145.8</ele>
        <time>2025-10-05T21:40:46Z</time>
      </trkpt>
      <trkpt lat="43.4565" lon="5.25834">
        <ele>146.1</ele>
        <time>2025-10-05T21:40:46Z</time>
      </trkpt>
      <trkpt lat="43.45654" lon="5.25818">
        <ele>146.4</ele>
        <time>2025-10-05T21:40:46Z</time>
      </trkpt>
      <trkpt lat="43.45654" lon="5.25805">
        <ele>146.9</ele>
        <time>2025-10-05T21:40:46Z</time>
      </trkpt>
      <trkpt lat="43.45652" lon="5.25796">
        <ele>147.9</ele>
        <time>2025-10-05T21:40:46Z</time>
      </trkpt>
      <trkpt lat="43.45645" lon="5.25767">
        <ele>149.4</ele>
        <time>2025-10-05T21:40:46Z</time>
      </trkpt>
      <trkpt lat="43.45645" lon="5.2576">
        <ele>149.7</ele>
        <time>2025-10-05T21:40:46Z</time>
      </trkpt>
      <trkpt lat="43.45646" lon="5.25748">
        <ele>150.1</ele>
        <time>2025-10-05T21:40:46Z</time>
      </trkpt>
      <trkpt lat="43.45649" lon="5.25736">
        <ele>150.1</ele>
        <time>2025-10-05T21:40:46Z</time>
      </trkpt>
      <trkpt lat="43.4565" lon="5.25729">
        <ele>150</ele>
        <time>2025-10-05T21:40:46Z</time>
      </trkpt>
      <trkpt lat="43.45655" lon="5.2571">
        <ele>151.6</ele>
        <time>2025-10-05T21:40:46Z</time>
      </trkpt>
      <trkpt lat="43.45658" lon="5.25699">
        <ele>151.4</ele>
        <time>2025-10-05T21:40:46Z</time>
      </trkpt>
      <trkpt lat="43.4566" lon="5.25695">
        <ele>152.3</ele>
        <time>2025-10-05T21:40:46Z</time>
      </trkpt>
      <trkpt lat="43.45667" lon="5.25686">
        <ele>153.2</ele>
        <time>2025-10-05T21:40:46Z</time>
      </trkpt>
      <trkpt lat="43.45676" lon="5.25673">
        <ele>153.6</ele>
        <time>2025-10-05T21:40:46Z</time>
      </trkpt>
      <trkpt lat="43.4568" lon="5.25665">
        <ele>154.1</ele>
        <time>2025-10-05T21:40:46Z</time>
      </trkpt>
      <trkpt lat="43.45689" lon="5.25643">
        <ele>154.5</ele>
        <time>2025-10-05T21:40:46Z</time>
      </trkpt>
      <trkpt lat="43.4569" lon="5.25637">
        <ele>159</ele>
        <time>2025-10-05T21:40:46Z</time>
      </trkpt>
      <trkpt lat="43.45689" lon="5.25623">
        <ele>160.4</ele>
        <time>2025-10-05T21:40:46Z</time>
      </trkpt>
      <trkpt lat="43.45681" lon="5.25578">
        <ele>161.7</ele>
        <time>2025-10-05T21:40:46Z</time>
      </trkpt>
      <trkpt lat="43.4567" lon="5.25502">
        <ele>163.5</ele>
        <time>2025-10-05T21:40:46Z</time>
      </trkpt>
      <trkpt lat="43.45669" lon="5.25494">
        <ele>164.6</ele>
        <time>2025-10-05T21:40:46Z</time>
      </trkpt>
      <trkpt lat="43.45667" lon="5.25468">
        <ele>166.7</ele>
        <time>2025-10-05T21:40:46Z</time>
      </trkpt>
      <trkpt lat="43.45657" lon="5.25469">
        <ele>167.7</ele>
        <time>2025-10-05T21:40:46Z</time>
      </trkpt>
      <trkpt lat="43.4562" lon="5.25475">
        <ele>168.6</ele>
        <time>2025-10-05T21:40:46Z</time>
      </trkpt>
      <trkpt lat="43.45579" lon="5.25488">
        <ele>169.5</ele>
        <time>2025-10-05T21:40:46Z</time>
      </trkpt>
      <trkpt lat="43.45547" lon="5.25498">
        <ele>170.4</ele>
        <time>2025-10-05T21:40:46Z</time>
      </trkpt>
      <trkpt lat="43.45513" lon="5.25513">
        <ele>170.8</ele>
        <time>2025-10-05T21:40:46Z</time>
      </trkpt>
      <trkpt lat="43.45479" lon="5.25523">
        <ele>171.8</ele>
        <time>2025-10-05T21:40:46Z</time>
      </trkpt>
      <trkpt lat="43.45472" lon="5.25528">
        <ele>171.9</ele>
        <time>2025-10-05T21:40:46Z</time>
      </trkpt>
      <trkpt lat="43.45464" lon="5.25536">
        <ele>172.5</ele>
        <time>2025-10-05T21:40:46Z</time>
      </trkpt>
      <trkpt lat="43.45461" lon="5.25538">
        <ele>174.5</ele>
        <time>2025-10-05T21:40:46Z</time>
      </trkpt>
      <trkpt lat="43.45444" lon="5.25547">
        <ele>177.5</ele>
        <time>2025-10-05T21:40:46Z</time>
      </trkpt>
      <trkpt lat="43.45431" lon="5.2555">
        <ele>177.9</ele>
        <time>2025-10-05T21:40:46Z</time>
      </trkpt>
      <trkpt lat="43.45422" lon="5.25549">
        <ele>178.6</ele>
        <time>2025-10-05T21:40:46Z</time>
      </trkpt>
      <trkpt lat="43.45417" lon="5.25549">
        <ele>178.6</ele>
        <time>2025-10-05T21:40:46Z</time>
      </trkpt>
      <trkpt lat="43.45412" lon="5.25549">
        <ele>178.6</ele>
        <time>2025-10-05T21:40:46Z</time>
      </trkpt>
      <trkpt lat="43.45403" lon="5.2555">
        <ele>178.6</ele>
        <time>2025-10-05T21:40:46Z</time>
      </trkpt>
      <trkpt lat="43.45399" lon="5.25553">
        <ele>178.5</ele>
        <time>2025-10-05T21:40:46Z</time>
      </trkpt>
      <trkpt lat="43.45379" lon="5.25569">
        <ele>177.8</ele>
        <time>2025-10-05T21:40:46Z</time>
      </trkpt>
      <trkpt lat="43.45354" lon="5.25591">
        <ele>177.6</ele>
        <time>2025-10-05T21:40:46Z</time>
      </trkpt>
      <trkpt lat="43.45319" lon="5.25618">
        <ele>177.2</ele>
        <time>2025-10-05T21:40:46Z</time>
      </trkpt>
      <trkpt lat="43.45301" lon="5.25628">
        <ele>177</ele>
        <time>2025-10-05T21:40:46Z</time>
      </trkpt>
      <trkpt lat="43.45289" lon="5.25635">
        <ele>176.8</ele>
        <time>2025-10-05T21:40:46Z</time>
      </trkpt>
      <trkpt lat="43.45258" lon="5.2565">
        <ele>176.5</ele>
        <time>2025-10-05T21:40:46Z</time>
      </trkpt>
      <trkpt lat="43.45247" lon="5.25662">
        <ele>176.4</ele>
        <time>2025-10-05T21:40:46Z</time>
      </trkpt>
      <trkpt lat="43.45236" lon="5.25674">
        <ele>175.7</ele>
        <time>2025-10-05T21:40:46Z</time>
      </trkpt>
      <trkpt lat="43.45219" lon="5.25687">
        <ele>175.3</ele>
        <time>2025-10-05T21:40:46Z</time>
      </trkpt>
      <trkpt lat="43.45187" lon="5.25709">
        <ele>175</ele>
        <time>2025-10-05T21:40:46Z</time>
      </trkpt>
      <trkpt lat="43.45175" lon="5.25715">
        <ele>174.9</ele>
        <time>2025-10-05T21:40:46Z</time>
      </trkpt>
      <trkpt lat="43.45153" lon="5.25717">
        <ele>174.9</ele>
        <time>2025-10-05T21:40:46Z</time>
      </trkpt>
      <trkpt lat="43.45137" lon="5.25721">
        <ele>174.7</ele>
        <time>2025-10-05T21:40:46Z</time>
      </trkpt>
      <trkpt lat="43.45119" lon="5.25727">
        <ele>174.6</ele>
        <time>2025-10-05T21:40:46Z</time>
      </trkpt>
      <trkpt lat="43.45106" lon="5.2573">
        <ele>174.1</ele>
        <time>2025-10-05T21:40:46Z</time>
      </trkpt>
      <trkpt lat="43.45086" lon="5.25728">
        <ele>173.6</ele>
        <time>2025-10-05T21:40:46Z</time>
      </trkpt>
      <trkpt lat="43.45049" lon="5.25728">
        <ele>172.9</ele>
        <time>2025-10-05T21:40:46Z</time>
      </trkpt>
      <trkpt lat="43.45031" lon="5.25727">
        <ele>172.8</ele>
        <time>2025-10-05T21:40:46Z</time>
      </trkpt>
      <trkpt lat="43.45024" lon="5.25727">
        <ele>172.8</ele>
        <time>2025-10-05T21:40:46Z</time>
      </trkpt>
      <trkpt lat="43.45019" lon="5.25728">
        <ele>172.3</ele>
        <time>2025-10-05T21:40:46Z</time>
      </trkpt>
      <trkpt lat="43.45008" lon="5.25731">
        <ele>171.9</ele>
        <time>2025-10-05T21:40:46Z</time>
      </trkpt>
      <trkpt lat="43.44994" lon="5.25739">
        <ele>171.6</ele>
        <time>2025-10-05T21:40:46Z</time>
      </trkpt>
      <trkpt lat="43.44976" lon="5.25752">
        <ele>170.8</ele>
        <time>2025-10-05T21:40:46Z</time>
      </trkpt>
      <trkpt lat="43.44969" lon="5.25754">
        <ele>170.3</ele>
        <time>2025-10-05T21:40:46Z</time>
      </trkpt>
      <trkpt lat="43.44874" lon="5.25774">
        <ele>170.3</ele>
        <time>2025-10-05T21:40:46Z</time>
      </trkpt>
      <trkpt lat="43.44854" lon="5.2578">
        <ele>170.7</ele>
        <time>2025-10-05T21:40:46Z</time>
      </trkpt>
      <trkpt lat="43.44839" lon="5.25784">
        <ele>170.8</ele>
        <time>2025-10-05T21:40:46Z</time>
      </trkpt>
      <trkpt lat="43.44815" lon="5.25795">
        <ele>170.4</ele>
        <time>2025-10-05T21:40:46Z</time>
      </trkpt>
      <trkpt lat="43.44354" lon="5.26077">
        <ele>170.4</ele>
        <time>2025-10-05T21:40:46Z</time>
      </trkpt>
      <trkpt lat="43.44351" lon="5.26074">
        <ele>170.6</ele>
        <time>2025-10-05T21:40:46Z</time>
      </trkpt>
      <trkpt lat="43.44343" lon="5.26083">
        <ele>170.7</ele>
        <time>2025-10-05T21:40:46Z</time>
      </trkpt>
      <trkpt lat="43.44336" lon="5.26089">
        <ele>169.9</ele>
        <time>2025-10-05T21:40:46Z</time>
      </trkpt>
      <trkpt lat="43.44327" lon="5.26095">
        <ele>169.7</ele>
        <time>2025-10-05T21:40:46Z</time>
      </trkpt>
      <trkpt lat="43.44318" lon="5.26099">
        <ele>169.6</ele>
        <time>2025-10-05T21:40:46Z</time>
      </trkpt>
      <trkpt lat="43.443" lon="5.26114">
        <ele>169.3</ele>
        <time>2025-10-05T21:40:46Z</time>
      </trkpt>
      <trkpt lat="43.44294" lon="5.26119">
        <ele>168.8</ele>
        <time>2025-10-05T21:40:46Z</time>
      </trkpt>
      <trkpt lat="43.44288" lon="5.26128">
        <ele>168.4</ele>
        <time>2025-10-05T21:40:46Z</time>
      </trkpt>
      <trkpt lat="43.4428" lon="5.2614">
        <ele>168.4</ele>
        <time>2025-10-05T21:40:46Z</time>
      </trkpt>
      <trkpt lat="43.44268" lon="5.26156">
        <ele>166.8</ele>
        <time>2025-10-05T21:40:46Z</time>
      </trkpt>
      <trkpt lat="43.44261" lon="5.26161">
        <ele>166</ele>
        <time>2025-10-05T21:40:46Z</time>
      </trkpt>
      <trkpt lat="43.44259" lon="5.26165">
        <ele>165.4</ele>
        <time>2025-10-05T21:40:46Z</time>
      </trkpt>
      <trkpt lat="43.44253" lon="5.26171">
        <ele>165.1</ele>
        <time>2025-10-05T21:40:46Z</time>
      </trkpt>
      <trkpt lat="43.44244" lon="5.26175">
        <ele>164.9</ele>
        <time>2025-10-05T21:40:46Z</time>
      </trkpt>
      <trkpt lat="43.44236" lon="5.26183">
        <ele>162.7</ele>
        <time>2025-10-05T21:40:46Z</time>
      </trkpt>
      <trkpt lat="43.44211" lon="5.2621">
        <ele>162.2</ele>
        <time>2025-10-05T21:40:46Z</time>
      </trkpt>
      <trkpt lat="43.44199" lon="5.26226">
        <ele>161.1</ele>
        <time>2025-10-05T21:40:46Z</time>
      </trkpt>
      <trkpt lat="43.4419" lon="5.26237">
        <ele>160.7</ele>
        <time>2025-10-05T21:40:46Z</time>
      </trkpt>
      <trkpt lat="43.44182" lon="5.26243">
        <ele>160.6</ele>
        <time>2025-10-05T21:40:46Z</time>
      </trkpt>
      <trkpt lat="43.44163" lon="5.26256">
        <ele>160.3</ele>
        <time>2025-10-05T21:40:46Z</time>
      </trkpt>
      <trkpt lat="43.44155" lon="5.26265">
        <ele>159.5</ele>
        <time>2025-10-05T21:40:46Z</time>
      </trkpt>
      <trkpt lat="43.44143" lon="5.26284">
        <ele>158.5</ele>
        <time>2025-10-05T21:40:46Z</time>
      </trkpt>
      <trkpt lat="43.44134" lon="5.26292">
        <ele>157.6</ele>
        <time>2025-10-05T21:40:46Z</time>
      </trkpt>
      <trkpt lat="43.44128" lon="5.26299">
        <ele>156.7</ele>
        <time>2025-10-05T21:40:46Z</time>
      </trkpt>
      <trkpt lat="43.44094" lon="5.26346">
        <ele>156.3</ele>
        <time>2025-10-05T21:40:46Z</time>
      </trkpt>
      <trkpt lat="43.44076" lon="5.26373">
        <ele>155.9</ele>
        <time>2025-10-05T21:40:46Z</time>
      </trkpt>
      <trkpt lat="43.44059" lon="5.26403">
        <ele>155.5</ele>
        <time>2025-10-05T21:40:46Z</time>
      </trkpt>
      <trkpt lat="43.44045" lon="5.26413">
        <ele>154.8</ele>
        <time>2025-10-05T21:40:46Z</time>
      </trkpt>
      <trkpt lat="43.44043" lon="5.26415">
        <ele>154.4</ele>
        <time>2025-10-05T21:40:46Z</time>
      </trkpt>
      <trkpt lat="43.4402" lon="5.26439">
        <ele>153.9</ele>
        <time>2025-10-05T21:40:46Z</time>
      </trkpt>
      <trkpt lat="43.44007" lon="5.26454">
        <ele>153.6</ele>
        <time>2025-10-05T21:40:46Z</time>
      </trkpt>
      <trkpt lat="43.43999" lon="5.26461">
        <ele>152.6</ele>
        <time>2025-10-05T21:40:46Z</time>
      </trkpt>
      <trkpt lat="43.43979" lon="5.26486">
        <ele>150.9</ele>
        <time>2025-10-05T21:40:46Z</time>
      </trkpt>
      <trkpt lat="43.43971" lon="5.26492">
        <ele>151</ele>
        <time>2025-10-05T21:40:46Z</time>
      </trkpt>
      <trkpt lat="43.43965" lon="5.26498">
        <ele>150.2</ele>
        <time>2025-10-05T21:40:46Z</time>
      </trkpt>
      <trkpt lat="43.43959" lon="5.26509">
        <ele>149.8</ele>
        <time>2025-10-05T21:40:46Z</time>
      </trkpt>
      <trkpt lat="43.43945" lon="5.26527">
        <ele>150.6</ele>
        <time>2025-10-05T21:40:46Z</time>
      </trkpt>
      <trkpt lat="43.43937" lon="5.26538">
        <ele>150.5</ele>
        <time>2025-10-05T21:40:46Z</time>
      </trkpt>
      <trkpt lat="43.43907" lon="5.26583">
        <ele>150.7</ele>
        <time>2025-10-05T21:40:46Z</time>
      </trkpt>
      <trkpt lat="43.43906" lon="5.26584">
        <ele>151.1</ele>
        <time>2025-10-05T21:40:46Z</time>
      </trkpt>
      <trkpt lat="43.43899" lon="5.26593">
        <ele>150.6</ele>
        <time>2025-10-05T21:40:46Z</time>
      </trkpt>
      <trkpt lat="43.43889" lon="5.266">
        <ele>150.2</ele>
        <time>2025-10-05T21:40:46Z</time>
      </trkpt>
      <trkpt lat="43.4388" lon="5.26608">
        <ele>150.4</ele>
        <time>2025-10-05T21:40:46Z</time>
      </trkpt>
      <trkpt lat="43.43874" lon="5.26617">
        <ele>150.4</ele>
        <time>2025-10-05T21:40:46Z</time>
      </trkpt>
      <trkpt lat="43.43866" lon="5.26626">
        <ele>150.5</ele>
        <time>2025-10-05T21:40:46Z</time>
      </trkpt>
      <trkpt lat="43.43858" lon="5.26637">
        <ele>150.6</ele>
        <time>2025-10-05T21:40:46Z</time>
      </trkpt>
      <trkpt lat="43.4385" lon="5.2665">
        <ele>150.7</ele>
        <time>2025-10-05T21:40:46Z</time>
      </trkpt>
      <trkpt lat="43.43842" lon="5.2666">
        <ele>150.8</ele>
        <time>2025-10-05T21:40:46Z</time>
      </trkpt>
      <trkpt lat="43.43833" lon="5.26672">
        <ele>150.7</ele>
        <time>2025-10-05T21:40:46Z</time>
      </trkpt>
      <trkpt lat="43.43829" lon="5.26676">
        <ele>150.3</ele>
        <time>2025-10-05T21:40:46Z</time>
      </trkpt>
      <trkpt lat="43.43816" lon="5.2669">
        <ele>149.7</ele>
        <time>2025-10-05T21:40:46Z</time>
      </trkpt>
      <trkpt lat="43.43809" lon="5.26695">
        <ele>149.7</ele>
        <time>2025-10-05T21:40:46Z</time>
      </trkpt>
      <trkpt lat="43.43789" lon="5.26711">
        <ele>149.5</ele>
        <time>2025-10-05T21:40:46Z</time>
      </trkpt>
      <trkpt lat="43.43787" lon="5.26712">
        <ele>149.3</ele>
        <time>2025-10-05T21:40:46Z</time>
      </trkpt>
      <trkpt lat="43.43778" lon="5.26721">
        <ele>148.8</ele>
        <time>2025-10-05T21:40:46Z</time>
      </trkpt>
      <trkpt lat="43.43763" lon="5.26739">
        <ele>148.7</ele>
        <time>2025-10-05T21:40:46Z</time>
      </trkpt>
      <trkpt lat="43.43743" lon="5.26755">
        <ele>148.4</ele>
        <time>2025-10-05T21:40:46Z</time>
      </trkpt>
      <trkpt lat="43.43724" lon="5.26768">
        <ele>147.1</ele>
        <time>2025-10-05T21:40:46Z</time>
      </trkpt>
      <trkpt lat="43.43702" lon="5.26778">
        <ele>146.5</ele>
        <time>2025-10-05T21:40:46Z</time>
      </trkpt>
      <trkpt lat="43.43696" lon="5.26782">
        <ele>145.6</ele>
        <time>2025-10-05T21:40:46Z</time>
      </trkpt>
      <trkpt lat="43.4368" lon="5.26794">
        <ele>145.1</ele>
        <time>2025-10-05T21:40:46Z</time>
      </trkpt>
      <trkpt lat="43.43673" lon="5.26802">
        <ele>144.4</ele>
        <time>2025-10-05T21:40:46Z</time>
      </trkpt>
      <trkpt lat="43.43667" lon="5.26809">
        <ele>144.3</ele>
        <time>2025-10-05T21:40:46Z</time>
      </trkpt>
      <trkpt lat="43.43653" lon="5.26824">
        <ele>143.9</ele>
        <time>2025-10-05T21:40:46Z</time>
      </trkpt>
      <trkpt lat="43.43646" lon="5.2683">
        <ele>143.6</ele>
        <time>2025-10-05T21:40:46Z</time>
      </trkpt>
      <trkpt lat="43.4362" lon="5.26844">
        <ele>142.7</ele>
        <time>2025-10-05T21:40:46Z</time>
      </trkpt>
      <trkpt lat="43.43595" lon="5.26861">
        <ele>142.6</ele>
        <time>2025-10-05T21:40:46Z</time>
      </trkpt>
      <trkpt lat="43.43574" lon="5.26874">
        <ele>142.5</ele>
        <time>2025-10-05T21:40:46Z</time>
      </trkpt>
      <trkpt lat="43.43552" lon="5.26893">
        <ele>142.2</ele>
        <time>2025-10-05T21:40:46Z</time>
      </trkpt>
      <trkpt lat="43.43528" lon="5.2691">
        <ele>141.7</ele>
        <time>2025-10-05T21:40:46Z</time>
      </trkpt>
      <trkpt lat="43.43503" lon="5.26929">
        <ele>141.4</ele>
        <time>2025-10-05T21:40:46Z</time>
      </trkpt>
      <trkpt lat="43.43471" lon="5.26952">
        <ele>140.4</ele>
        <time>2025-10-05T21:40:46Z</time>
      </trkpt>
      <trkpt lat="43.43459" lon="5.26957">
        <ele>140.2</ele>
        <time>2025-10-05T21:40:46Z</time>
      </trkpt>
      <trkpt lat="43.43443" lon="5.26965">
        <ele>140</ele>
        <time>2025-10-05T21:40:46Z</time>
      </trkpt>
      <trkpt lat="43.43432" lon="5.26975">
        <ele>139.8</ele>
        <time>2025-10-05T21:40:46Z</time>
      </trkpt>
      <trkpt lat="43.43424" lon="5.26978">
        <ele>139.6</ele>
        <time>2025-10-05T21:40:46Z</time>
      </trkpt>
      <trkpt lat="43.43414" lon="5.26982">
        <ele>139.4</ele>
        <time>2025-10-05T21:40:46Z</time>
      </trkpt>
      <trkpt lat="43.43402" lon="5.26992">
        <ele>139.2</ele>
        <time>2025-10-05T21:40:46Z</time>
      </trkpt>
      <trkpt lat="43.43397" lon="5.26998">
        <ele>138.9</ele>
        <time>2025-10-05T21:40:46Z</time>
      </trkpt>
      <trkpt lat="43.43397" lon="5.27">
        <ele>138.8</ele>
        <time>2025-10-05T21:40:46Z</time>
      </trkpt>
      <trkpt lat="43.43393" lon="5.27002">
        <ele>138.6</ele>
        <time>2025-10-05T21:40:46Z</time>
      </trkpt>
      <trkpt lat="43.43387" lon="5.27007">
        <ele>138.1</ele>
        <time>2025-10-05T21:40:46Z</time>
      </trkpt>
      <trkpt lat="43.43377" lon="5.27021">
        <ele>137.9</ele>
        <time>2025-10-05T21:40:46Z</time>
      </trkpt>
      <trkpt lat="43.4337" lon="5.27026">
        <ele>137.4</ele>
        <time>2025-10-05T21:40:46Z</time>
      </trkpt>
      <trkpt lat="43.43363" lon="5.27033">
        <ele>137.5</ele>
        <time>2025-10-05T21:40:46Z</time>
      </trkpt>
      <trkpt lat="43.43356" lon="5.27038">
        <ele>137.2</ele>
        <time>2025-10-05T21:40:46Z</time>
      </trkpt>
      <trkpt lat="43.43348" lon="5.27047">
        <ele>136.6</ele>
        <time>2025-10-05T21:40:46Z</time>
      </trkpt>
      <trkpt lat="43.43332" lon="5.27067">
        <ele>136</ele>
        <time>2025-10-05T21:40:46Z</time>
      </trkpt>
      <trkpt lat="43.43325" lon="5.27074">
        <ele>135.7</ele>
        <time>2025-10-05T21:40:46Z</time>
      </trkpt>
      <trkpt lat="43.43319" lon="5.27084">
        <ele>135.6</ele>
        <time>2025-10-05T21:40:46Z</time>
      </trkpt>
      <trkpt lat="43.43315" lon="5.27095">
        <ele>134.8</ele>
        <time>2025-10-05T21:40:46Z</time>
      </trkpt>
      <trkpt lat="43.43309" lon="5.27106">
        <ele>134.5</ele>
        <time>2025-10-05T21:40:46Z</time>
      </trkpt>
      <trkpt lat="43.43297" lon="5.27123">
        <ele>134.4</ele>
        <time>2025-10-05T21:40:46Z</time>
      </trkpt>
      <trkpt lat="43.43294" lon="5.2713">
        <ele>134.1</ele>
        <time>2025-10-05T21:40:46Z</time>
      </trkpt>
      <trkpt lat="43.43287" lon="5.27143">
        <ele>134.1</ele>
        <time>2025-10-05T21:40:46Z</time>
      </trkpt>
      <trkpt lat="43.43284" lon="5.2715">
        <ele>134.2</ele>
        <time>2025-10-05T21:40:46Z</time>
      </trkpt>
      <trkpt lat="43.43282" lon="5.27128">
        <ele>134.1</ele>
        <time>2025-10-05T21:40:46Z</time>
      </trkpt>
      <trkpt lat="43.43281" lon="5.27119">
        <ele>134</ele>
        <time>2025-10-05T21:40:46Z</time>
      </trkpt>
      <trkpt lat="43.43259" lon="5.27113">
        <ele>133.5</ele>
        <time>2025-10-05T21:40:46Z</time>
      </trkpt>
      <trkpt lat="43.43244" lon="5.27097">
        <ele>133.2</ele>
        <time>2025-10-05T21:40:46Z</time>
      </trkpt>
      <trkpt lat="43.43238" lon="5.27038">
        <ele>132.3</ele>
        <time>2025-10-05T21:40:46Z</time>
      </trkpt>
      <trkpt lat="43.43225" lon="5.27006">
        <ele>131.6</ele>
        <time>2025-10-05T21:40:46Z</time>
      </trkpt>
      <trkpt lat="43.43217" lon="5.26967">
        <ele>130.9</ele>
        <time>2025-10-05T21:40:46Z</time>
      </trkpt>
      <trkpt lat="43.43222" lon="5.26942">
        <ele>129.9</ele>
        <time>2025-10-05T21:40:46Z</time>
      </trkpt>
      <trkpt lat="43.43237" lon="5.26911">
        <ele>129.5</ele>
        <time>2025-10-05T21:40:46Z</time>
      </trkpt>
      <trkpt lat="43.43262" lon="5.26879">
        <ele>128.6</ele>
        <time>2025-10-05T21:40:46Z</time>
      </trkpt>
      <trkpt lat="43.43264" lon="5.26866">
        <ele>128</ele>
        <time>2025-10-05T21:40:46Z</time>
      </trkpt>
      <trkpt lat="43.43295" lon="5.26821">
        <ele>128.4</ele>
        <time>2025-10-05T21:40:46Z</time>
      </trkpt>
      <trkpt lat="43.43342" lon="5.26799">
        <ele>128</ele>
        <time>2025-10-05T21:40:46Z</time>
      </trkpt>
      <trkpt lat="43.4342" lon="5.26733">
        <ele>127.3</ele>
        <time>2025-10-05T21:40:46Z</time>
      </trkpt>
      <trkpt lat="43.43453" lon="5.26735">
        <ele>127.2</ele>
        <time>2025-10-05T21:40:46Z</time>
      </trkpt>
      <trkpt lat="43.43508" lon="5.26712">
        <ele>127.2</ele>
        <time>2025-10-05T21:40:46Z</time>
      </trkpt>
      <trkpt lat="43.43527" lon="5.2672">
        <ele>127.2</ele>
        <time>2025-10-05T21:40:46Z</time>
      </trkpt>
      <trkpt lat="43.43571" lon="5.26697">
        <ele>127.3</ele>
        <time>2025-10-05T21:40:46Z</time>
      </trkpt>
      <trkpt lat="43.43595" lon="5.26685">
        <ele>126.8</ele>
        <time>2025-10-05T21:40:46Z</time>
      </trkpt>
      <trkpt lat="43.43646" lon="5.26657">
        <ele>126.8</ele>
        <time>2025-10-05T21:40:46Z</time>
      </trkpt>
      <trkpt lat="43.43674" lon="5.26659">
        <ele>126.5</ele>
        <time>2025-10-05T21:40:46Z</time>
      </trkpt>
      <trkpt lat="43.43689" lon="5.26656">
        <ele>126.4</ele>
        <time>2025-10-05T21:40:46Z</time>
      </trkpt>
      <trkpt lat="43.43698" lon="5.26651">
        <ele>126</ele>
        <time>2025-10-05T21:40:46Z</time>
      </trkpt>
      <trkpt lat="43.437" lon="5.26631">
        <ele>125.4</ele>
        <time>2025-10-05T21:40:46Z</time>
      </trkpt>
      <trkpt lat="43.43741" lon="5.26608">
        <ele>125</ele>
        <time>2025-10-05T21:40:46Z</time>
      </trkpt>
      <trkpt lat="43.43785" lon="5.2658">
        <ele>124.6</ele>
        <time>2025-10-05T21:40:46Z</time>
      </trkpt>
      <trkpt lat="43.43804" lon="5.26579">
        <ele>124.2</ele>
        <time>2025-10-05T21:40:46Z</time>
      </trkpt>
      <trkpt lat="43.43826" lon="5.26559">
        <ele>123.9</ele>
        <time>2025-10-05T21:40:46Z</time>
      </trkpt>
      <trkpt lat="43.43868" lon="5.26536">
        <ele>123.1</ele>
        <time>2025-10-05T21:40:46Z</time>
      </trkpt>
      <trkpt lat="43.4388" lon="5.26525">
        <ele>122.8</ele>
        <time>2025-10-05T21:40:46Z</time>
      </trkpt>
      <trkpt lat="43.43902" lon="5.26513">
        <ele>123</ele>
        <time>2025-10-05T21:40:46Z</time>
      </trkpt>
      <trkpt lat="43.43918" lon="5.265">
        <ele>122.8</ele>
        <time>2025-10-05T21:40:46Z</time>
      </trkpt>
      <trkpt lat="43.4395" lon="5.26486">
        <ele>122.4</ele>
        <time>2025-10-05T21:40:46Z</time>
      </trkpt>
      <trkpt lat="43.43966" lon="5.26477">
        <ele>122.2</ele>
        <time>2025-10-05T21:40:46Z</time>
      </trkpt>
      <trkpt lat="43.43976" lon="5.26481">
        <ele>122.6</ele>
        <time>2025-10-05T21:40:46Z</time>
      </trkpt>
      <trkpt lat="43.4399" lon="5.26468">
        <ele>122.5</ele>
        <time>2025-10-05T21:40:46Z</time>
      </trkpt>
      <trkpt lat="43.43987" lon="5.26427">
        <ele>121.7</ele>
        <time>2025-10-05T21:40:46Z</time>
      </trkpt>
      <trkpt lat="43.44012" lon="5.26389">
        <ele>122.5</ele>
        <time>2025-10-05T21:40:46Z</time>
      </trkpt>
      <trkpt lat="43.44025" lon="5.26377">
        <ele>123.4</ele>
        <time>2025-10-05T21:40:46Z</time>
      </trkpt>
      <trkpt lat="43.44061" lon="5.26331">
        <ele>124.3</ele>
        <time>2025-10-05T21:40:46Z</time>
      </trkpt>
      <trkpt lat="43.44075" lon="5.26328">
        <ele>124.9</ele>
        <time>2025-10-05T21:40:46Z</time>
      </trkpt>
      <trkpt lat="43.44098" lon="5.26293">
        <ele>125.8</ele>
        <time>2025-10-05T21:40:46Z</time>
      </trkpt>
      <trkpt lat="43.44127" lon="5.26265">
        <ele>127.1</ele>
        <time>2025-10-05T21:40:46Z</time>
      </trkpt>
      <trkpt lat="43.44145" lon="5.26259">
        <ele>128.2</ele>
        <time>2025-10-05T21:40:46Z</time>
      </trkpt>
      <trkpt lat="43.44168" lon="5.26239">
        <ele>128.3</ele>
        <time>2025-10-05T21:40:46Z</time>
      </trkpt>
      <trkpt lat="43.44194" lon="5.26217">
        <ele>129.7</ele>
        <time>2025-10-05T21:40:46Z</time>
      </trkpt>
      <trkpt lat="43.44202" lon="5.26217">
        <ele>130.9</ele>
        <time>2025-10-05T21:40:46Z</time>
      </trkpt>
      <trkpt lat="43.44209" lon="5.26215">
        <ele>133.7</ele>
        <time>2025-10-05T21:40:46Z</time>
      </trkpt>
      <trkpt lat="43.44229" lon="5.26191">
        <ele>134.6</ele>
        <time>2025-10-05T21:40:46Z</time>
      </trkpt>
      <trkpt lat="43.44236" lon="5.26183">
        <ele>135.7</ele>
        <time>2025-10-05T21:40:46Z</time>
      </trkpt>
      <trkpt lat="43.44244" lon="5.26175">
        <ele>136.2</ele>
        <time>2025-10-05T21:40:46Z</time>
      </trkpt>
      <trkpt lat="43.44253" lon="5.26171">
        <ele>137.2</ele>
        <time>2025-10-05T21:40:46Z</time>
      </trkpt>
      <trkpt lat="43.44259" lon="5.26165">
        <ele>136.5</ele>
        <time>2025-10-05T21:40:46Z</time>
      </trkpt>
      <trkpt lat="43.44261" lon="5.26161">
        <ele>138.2</ele>
        <time>2025-10-05T21:40:46Z</time>
      </trkpt>
      <trkpt lat="43.44268" lon="5.26156">
        <ele>137.2</ele>
        <time>2025-10-05T21:40:46Z</time>
      </trkpt>
      <trkpt lat="43.4428" lon="5.2614">
        <ele>137.5</ele>
        <time>2025-10-05T21:40:46Z</time>
      </trkpt>
      <trkpt lat="43.44288" lon="5.26128">
        <ele>138</ele>
        <time>2025-10-05T21:40:46Z</time>
      </trkpt>
      <trkpt lat="43.44294" lon="5.26119">
        <ele>138.4</ele>
        <time>2025-10-05T21:40:46Z</time>
      </trkpt>
      <trkpt lat="43.443" lon="5.26114">
        <ele>139.5</ele>
        <time>2025-10-05T21:40:46Z</time>
      </trkpt>
      <trkpt lat="43.44318" lon="5.26099">
        <ele>140</ele>
        <time>2025-10-05T21:40:46Z</time>
      </trkpt>
      <trkpt lat="43.44327" lon="5.26095">
        <ele>140.1</ele>
        <time>2025-10-05T21:40:46Z</time>
      </trkpt>
      <trkpt lat="43.44336" lon="5.26089">
        <ele>140.2</ele>
        <time>2025-10-05T21:40:46Z</time>
      </trkpt>
      <trkpt lat="43.44343" lon="5.26083">
        <ele>141</ele>
        <time>2025-10-05T21:40:46Z</time>
      </trkpt>
      <trkpt lat="43.44354" lon="5.2607">
        <ele>141.2</ele>
        <time>2025-10-05T21:40:46Z</time>
      </trkpt>
      <trkpt lat="43.44365" lon="5.26059">
        <ele>141.7</ele>
        <time>2025-10-05T21:40:46Z</time>
      </trkpt>
      <trkpt lat="43.44376" lon="5.26052">
        <ele>142</ele>
        <time>2025-10-05T21:40:46Z</time>
      </trkpt>
      <trkpt lat="43.44385" lon="5.26042">
        <ele>142.6</ele>
        <time>2025-10-05T21:40:46Z</time>
      </trkpt>
      <trkpt lat="43.44404" lon="5.26026">
        <ele>142.1</ele>
        <time>2025-10-05T21:40:46Z</time>
      </trkpt>
      <trkpt lat="43.44409" lon="5.26016">
        <ele>142.8</ele>
        <time>2025-10-05T21:40:46Z</time>
      </trkpt>
      <trkpt lat="43.44421" lon="5.26003">
        <ele>143.4</ele>
        <time>2025-10-05T21:40:46Z</time>
      </trkpt>
      <trkpt lat="43.4443" lon="5.25996">
        <ele>144.4</ele>
        <time>2025-10-05T21:40:46Z</time>
      </trkpt>
      <trkpt lat="43.44439" lon="5.25989">
        <ele>145.5</ele>
        <time>2025-10-05T21:40:46Z</time>
      </trkpt>
      <trkpt lat="43.44446" lon="5.25981">
        <ele>145.9</ele>
        <time>2025-10-05T21:40:46Z</time>
      </trkpt>
      <trkpt lat="43.44456" lon="5.25963">
        <ele>147.2</ele>
        <time>2025-10-05T21:40:46Z</time>
      </trkpt>
      <trkpt lat="43.4446" lon="5.25954">
        <ele>147.3</ele>
        <time>2025-10-05T21:40:46Z</time>
      </trkpt>
      <trkpt lat="43.44464" lon="5.2594">
        <ele>148.4</ele>
        <time>2025-10-05T21:40:46Z</time>
      </trkpt>
      <trkpt lat="43.44466" lon="5.25928">
        <ele>148.3</ele>
        <time>2025-10-05T21:40:46Z</time>
      </trkpt>
      <trkpt lat="43.44467" lon="5.25921">
        <ele>149.5</ele>
        <time>2025-10-05T21:40:46Z</time>
      </trkpt>
      <trkpt lat="43.44469" lon="5.25913">
        <ele>149.9</ele>
        <time>2025-10-05T21:40:46Z</time>
      </trkpt>
      <trkpt lat="43.44474" lon="5.25906">
        <ele>150.2</ele>
        <time>2025-10-05T21:40:46Z</time>
      </trkpt>
      <trkpt lat="43.44478" lon="5.25895">
        <ele>150.2</ele>
        <time>2025-10-05T21:40:46Z</time>
      </trkpt>
      <trkpt lat="43.44484" lon="5.25887">
        <ele>150.2</ele>
        <time>2025-10-05T21:40:46Z</time>
      </trkpt>
      <trkpt lat="43.44494" lon="5.25877">
        <ele>150.6</ele>
        <time>2025-10-05T21:40:46Z</time>
      </trkpt>
      <trkpt lat="43.44505" lon="5.25868">
        <ele>150.7</ele>
        <time>2025-10-05T21:40:46Z</time>
      </trkpt>
      <trkpt lat="43.44523" lon="5.25851">
        <ele>150.8</ele>
        <time>2025-10-05T21:40:46Z</time>
      </trkpt>
      <trkpt lat="43.44538" lon="5.25833">
        <ele>150.7</ele>
        <time>2025-10-05T21:40:46Z</time>
      </trkpt>
      <trkpt lat="43.44547" lon="5.25818">
        <ele>150.6</ele>
        <time>2025-10-05T21:40:46Z</time>
      </trkpt>
      <trkpt lat="43.44553" lon="5.25811">
        <ele>150.5</ele>
        <time>2025-10-05T21:40:46Z</time>
      </trkpt>
      <trkpt lat="43.4456" lon="5.25806">
        <ele>150.4</ele>
        <time>2025-10-05T21:40:46Z</time>
      </trkpt>
      <trkpt lat="43.44566" lon="5.25804">
        <ele>150.4</ele>
        <time>2025-10-05T21:40:46Z</time>
      </trkpt>
      <trkpt lat="43.44575" lon="5.25807">
        <ele>150.2</ele>
        <time>2025-10-05T21:40:46Z</time>
      </trkpt>
      <trkpt lat="43.44588" lon="5.25811">
        <ele>150.2</ele>
        <time>2025-10-05T21:40:46Z</time>
      </trkpt>
      <trkpt lat="43.44606" lon="5.25812">
        <ele>150.6</ele>
        <time>2025-10-05T21:40:46Z</time>
      </trkpt>
      <trkpt lat="43.44625" lon="5.25808">
        <ele>151.1</ele>
        <time>2025-10-05T21:40:46Z</time>
      </trkpt>
      <trkpt lat="43.44637" lon="5.25805">
        <ele>150.7</ele>
        <time>2025-10-05T21:40:46Z</time>
      </trkpt>
      <trkpt lat="43.44644" lon="5.25801">
        <ele>150.5</ele>
        <time>2025-10-05T21:40:46Z</time>
      </trkpt>
      <trkpt lat="43.44652" lon="5.25789">
        <ele>150.6</ele>
        <time>2025-10-05T21:40:46Z</time>
      </trkpt>
      <trkpt lat="43.44657" lon="5.25782">
        <ele>149.8</ele>
        <time>2025-10-05T21:40:46Z</time>
      </trkpt>
      <trkpt lat="43.44665" lon="5.25778">
        <ele>149.6</ele>
        <time>2025-10-05T21:40:46Z</time>
      </trkpt>
      <trkpt lat="43.44674" lon="5.25777">
        <ele>150.2</ele>
        <time>2025-10-05T21:40:46Z</time>
      </trkpt>
      <trkpt lat="43.44684" lon="5.25779">
        <ele>151</ele>
        <time>2025-10-05T21:40:46Z</time>
      </trkpt>
      <trkpt lat="43.44691" lon="5.25781">
        <ele>150.9</ele>
        <time>2025-10-05T21:40:46Z</time>
      </trkpt>
      <trkpt lat="43.44708" lon="5.2578">
        <ele>152.6</ele>
        <time>2025-10-05T21:40:46Z</time>
      </trkpt>
      <trkpt lat="43.44718" lon="5.25779">
        <ele>153.6</ele>
        <time>2025-10-05T21:40:46Z</time>
      </trkpt>
      <trkpt lat="43.44722" lon="5.25782">
        <ele>153.8</ele>
        <time>2025-10-05T21:40:46Z</time>
      </trkpt>
      <trkpt lat="43.44726" lon="5.25787">
        <ele>153.9</ele>
        <time>2025-10-05T21:40:46Z</time>
      </trkpt>
      <trkpt lat="43.4473" lon="5.25789">
        <ele>154.4</ele>
        <time>2025-10-05T21:40:46Z</time>
      </trkpt>
      <trkpt lat="43.44741" lon="5.25789">
        <ele>154.8</ele>
        <time>2025-10-05T21:40:46Z</time>
      </trkpt>
      <trkpt lat="43.44756" lon="5.25791">
        <ele>155.5</ele>
        <time>2025-10-05T21:40:46Z</time>
      </trkpt>
      <trkpt lat="43.44769" lon="5.25791">
        <ele>155.9</ele>
        <time>2025-10-05T21:40:46Z</time>
      </trkpt>
      <trkpt lat="43.44781" lon="5.25791">
        <ele>155.9</ele>
        <time>2025-10-05T21:40:46Z</time>
      </trkpt>
      <trkpt lat="43.44802" lon="5.25795">
        <ele>156.3</ele>
        <time>2025-10-05T21:40:46Z</time>
      </trkpt>
      <trkpt lat="43.44815" lon="5.25795">
        <ele>156.7</ele>
        <time>2025-10-05T21:40:46Z</time>
      </trkpt>
      <trkpt lat="43.44824" lon="5.25786">
        <ele>156.3</ele>
        <time>2025-10-05T21:40:46Z</time>
      </trkpt>
      <trkpt lat="43.44827" lon="5.25784">
        <ele>157.1</ele>
        <time>2025-10-05T21:40:46Z</time>
      </trkpt>
      <trkpt lat="43.44833" lon="5.2578">
        <ele>157.4</ele>
        <time>2025-10-05T21:40:46Z</time>
      </trkpt>
      <trkpt lat="43.44842" lon="5.25775">
        <ele>157.8</ele>
        <time>2025-10-05T21:40:46Z</time>
      </trkpt>
      <trkpt lat="43.44852" lon="5.25765">
        <ele>158.7</ele>
        <time>2025-10-05T21:40:46Z</time>
      </trkpt>
      <trkpt lat="43.44873" lon="5.25748">
        <ele>159</ele>
        <time>2025-10-05T21:40:46Z</time>
      </trkpt>
      <trkpt lat="43.44881" lon="5.25743">
        <ele>159.2</ele>
        <time>2025-10-05T21:40:46Z</time>
      </trkpt>
      <trkpt lat="43.44893" lon="5.25741">
        <ele>159.3</ele>
        <time>2025-10-05T21:40:46Z</time>
      </trkpt>
      <trkpt lat="43.44902" lon="5.2574">
        <ele>159.6</ele>
        <time>2025-10-05T21:40:46Z</time>
      </trkpt>
      <trkpt lat="43.44913" lon="5.25734">
        <ele>159.9</ele>
        <time>2025-10-05T21:40:46Z</time>
      </trkpt>
      <trkpt lat="43.44922" lon="5.25731">
        <ele>160.2</ele>
        <time>2025-10-05T21:40:46Z</time>
      </trkpt>
      <trkpt lat="43.44934" lon="5.25727">
        <ele>160.4</ele>
        <time>2025-10-05T21:40:46Z</time>
      </trkpt>
      <trkpt lat="43.44951" lon="5.25719">
        <ele>160.7</ele>
        <time>2025-10-05T21:40:46Z</time>
      </trkpt>
      <trkpt lat="43.44961" lon="5.25713">
        <ele>161.6</ele>
        <time>2025-10-05T21:40:46Z</time>
      </trkpt>
      <trkpt lat="43.44973" lon="5.25709">
        <ele>162.3</ele>
        <time>2025-10-05T21:40:46Z</time>
      </trkpt>
      <trkpt lat="43.44982" lon="5.25707">
        <ele>163</ele>
        <time>2025-10-05T21:40:46Z</time>
      </trkpt>
      <trkpt lat="43.4499" lon="5.25704">
        <ele>163.4</ele>
        <time>2025-10-05T21:40:46Z</time>
      </trkpt>
      <trkpt lat="43.44997" lon="5.257">
        <ele>163.6</ele>
        <time>2025-10-05T21:40:46Z</time>
      </trkpt>
      <trkpt lat="43.45004" lon="5.25689">
        <ele>163.7</ele>
        <time>2025-10-05T21:40:46Z</time>
      </trkpt>
      <trkpt lat="43.4501" lon="5.25686">
        <ele>163.7</ele>
        <time>2025-10-05T21:40:46Z</time>
      </trkpt>
      <trkpt lat="43.45017" lon="5.25683">
        <ele>163.6</ele>
        <time>2025-10-05T21:40:46Z</time>
      </trkpt>
      <trkpt lat="43.45027" lon="5.25677">
        <ele>163.4</ele>
        <time>2025-10-05T21:40:46Z</time>
      </trkpt>
      <trkpt lat="43.45033" lon="5.25671">
        <ele>162.9</ele>
        <time>2025-10-05T21:40:46Z</time>
      </trkpt>
      <trkpt lat="43.45048" lon="5.25658">
        <ele>162.9</ele>
        <time>2025-10-05T21:40:46Z</time>
      </trkpt>
      <trkpt lat="43.45059" lon="5.25646">
        <ele>163</ele>
        <time>2025-10-05T21:40:46Z</time>
      </trkpt>
      <trkpt lat="43.45065" lon="5.25638">
        <ele>163.4</ele>
        <time>2025-10-05T21:40:46Z</time>
      </trkpt>
      <trkpt lat="43.45069" lon="5.25634">
        <ele>164</ele>
        <time>2025-10-05T21:40:46Z</time>
      </trkpt>
      <trkpt lat="43.45074" lon="5.25632">
        <ele>164.2</ele>
        <time>2025-10-05T21:40:46Z</time>
      </trkpt>
      <trkpt lat="43.45077" lon="5.25628">
        <ele>164.4</ele>
        <time>2025-10-05T21:40:46Z</time>
      </trkpt>
      <trkpt lat="43.4508" lon="5.25618">
        <ele>164.5</ele>
        <time>2025-10-05T21:40:46Z</time>
      </trkpt>
      <trkpt lat="43.45082" lon="5.25612">
        <ele>164.5</ele>
        <time>2025-10-05T21:40:46Z</time>
      </trkpt>
      <trkpt lat="43.45088" lon="5.25606">
        <ele>164.5</ele>
        <time>2025-10-05T21:40:46Z</time>
      </trkpt>
      <trkpt lat="43.45092" lon="5.25604">
        <ele>164.6</ele>
        <time>2025-10-05T21:40:46Z</time>
      </trkpt>
      <trkpt lat="43.45095" lon="5.25602">
        <ele>164.4</ele>
        <time>2025-10-05T21:40:46Z</time>
      </trkpt>
      <trkpt lat="43.45097" lon="5.25596">
        <ele>164.5</ele>
        <time>2025-10-05T21:40:46Z</time>
      </trkpt>
      <trkpt lat="43.45103" lon="5.25588">
        <ele>164.6</ele>
        <time>2025-10-05T21:40:46Z</time>
      </trkpt>
      <trkpt lat="43.45108" lon="5.25585">
        <ele>164.5</ele>
        <time>2025-10-05T21:40:46Z</time>
      </trkpt>
      <trkpt lat="43.45109" lon="5.2558">
        <ele>164.6</ele>
        <time>2025-10-05T21:40:46Z</time>
      </trkpt>
      <trkpt lat="43.45115" lon="5.25575">
        <ele>164.5</ele>
        <time>2025-10-05T21:40:46Z</time>
      </trkpt>
      <trkpt lat="43.45119" lon="5.25572">
        <ele>164.8</ele>
        <time>2025-10-05T21:40:46Z</time>
      </trkpt>
      <trkpt lat="43.45124" lon="5.25572">
        <ele>165.1</ele>
        <time>2025-10-05T21:40:46Z</time>
      </trkpt>
      <trkpt lat="43.45126" lon="5.25571">
        <ele>165</ele>
        <time>2025-10-05T21:40:46Z</time>
      </trkpt>
      <trkpt lat="43.45129" lon="5.25568">
        <ele>165.1</ele>
        <time>2025-10-05T21:40:46Z</time>
      </trkpt>
      <trkpt lat="43.45137" lon="5.25553">
        <ele>165.1</ele>
        <time>2025-10-05T21:40:46Z</time>
      </trkpt>
      <trkpt lat="43.45141" lon="5.25546">
        <ele>165.1</ele>
        <time>2025-10-05T21:40:46Z</time>
      </trkpt>
      <trkpt lat="43.45144" lon="5.25542">
        <ele>165.2</ele>
        <time>2025-10-05T21:40:46Z</time>
      </trkpt>
      <trkpt lat="43.45146" lon="5.25536">
        <ele>165.2</ele>
        <time>2025-10-05T21:40:46Z</time>
      </trkpt>
      <trkpt lat="43.45152" lon="5.2553">
        <ele>165.4</ele>
        <time>2025-10-05T21:40:46Z</time>
      </trkpt>
      <trkpt lat="43.45157" lon="5.25529">
        <ele>165.9</ele>
        <time>2025-10-05T21:40:46Z</time>
      </trkpt>
      <trkpt lat="43.4516" lon="5.25531">
        <ele>166.5</ele>
        <time>2025-10-05T21:40:46Z</time>
      </trkpt>
      <trkpt lat="43.45163" lon="5.2553">
        <ele>167.3</ele>
        <time>2025-10-05T21:40:46Z</time>
      </trkpt>
      <trkpt lat="43.45167" lon="5.25529">
        <ele>168.1</ele>
        <time>2025-10-05T21:40:46Z</time>
      </trkpt>
      <trkpt lat="43.45171" lon="5.25531">
        <ele>168.1</ele>
        <time>2025-10-05T21:40:46Z</time>
      </trkpt>
      <trkpt lat="43.45174" lon="5.25531">
        <ele>168.6</ele>
        <time>2025-10-05T21:40:46Z</time>
      </trkpt>
      <trkpt lat="43.45183" lon="5.25526">
        <ele>168.7</ele>
        <time>2025-10-05T21:40:46Z</time>
      </trkpt>
      <trkpt lat="43.45188" lon="5.25522">
        <ele>168.3</ele>
        <time>2025-10-05T21:40:46Z</time>
      </trkpt>
      <trkpt lat="43.45192" lon="5.25517">
        <ele>168.7</ele>
        <time>2025-10-05T21:40:46Z</time>
      </trkpt>
      <trkpt lat="43.45197" lon="5.25511">
        <ele>169.1</ele>
        <time>2025-10-05T21:40:46Z</time>
      </trkpt>
      <trkpt lat="43.452" lon="5.25504">
        <ele>169</ele>
        <time>2025-10-05T21:40:46Z</time>
      </trkpt>
      <trkpt lat="43.45202" lon="5.25497">
        <ele>169.6</ele>
        <time>2025-10-05T21:40:46Z</time>
      </trkpt>
      <trkpt lat="43.45205" lon="5.25488">
        <ele>169.6</ele>
        <time>2025-10-05T21:40:46Z</time>
      </trkpt>
      <trkpt lat="43.45208" lon="5.25481">
        <ele>170.1</ele>
        <time>2025-10-05T21:40:46Z</time>
      </trkpt>
      <trkpt lat="43.45212" lon="5.25477">
        <ele>170.4</ele>
        <time>2025-10-05T21:40:46Z</time>
      </trkpt>
      <trkpt lat="43.45216" lon="5.2547">
        <ele>170.6</ele>
        <time>2025-10-05T21:40:46Z</time>
      </trkpt>
      <trkpt lat="43.45221" lon="5.2546">
        <ele>170.8</ele>
        <time>2025-10-05T21:40:46Z</time>
      </trkpt>
      <trkpt lat="43.45225" lon="5.25455">
        <ele>171.1</ele>
        <time>2025-10-05T21:40:46Z</time>
      </trkpt>
      <trkpt lat="43.4523" lon="5.25454">
        <ele>171.3</ele>
        <time>2025-10-05T21:40:46Z</time>
      </trkpt>
      <trkpt lat="43.45233" lon="5.25456">
        <ele>171.6</ele>
        <time>2025-10-05T21:40:46Z</time>
      </trkpt>
      <trkpt lat="43.45235" lon="5.25457">
        <ele>171.6</ele>
        <time>2025-10-05T21:40:46Z</time>
      </trkpt>
      <trkpt lat="43.45237" lon="5.25457">
        <ele>171.8</ele>
        <time>2025-10-05T21:40:46Z</time>
      </trkpt>
      <trkpt lat="43.45241" lon="5.25458">
        <ele>171.8</ele>
        <time>2025-10-05T21:40:46Z</time>
      </trkpt>
      <trkpt lat="43.45244" lon="5.2546">
        <ele>172.1</ele>
        <time>2025-10-05T21:40:46Z</time>
      </trkpt>
      <trkpt lat="43.45249" lon="5.25464">
        <ele>172.3</ele>
        <time>2025-10-05T21:40:46Z</time>
      </trkpt>
      <trkpt lat="43.45257" lon="5.25466">
        <ele>172.5</ele>
        <time>2025-10-05T21:40:46Z</time>
      </trkpt>
      <trkpt lat="43.45265" lon="5.25467">
        <ele>172.5</ele>
        <time>2025-10-05T21:40:46Z</time>
      </trkpt>
      <trkpt lat="43.4527" lon="5.25466">
        <ele>172.8</ele>
        <time>2025-10-05T21:40:46Z</time>
      </trkpt>
      <trkpt lat="43.45277" lon="5.25466">
        <ele>173</ele>
        <time>2025-10-05T21:40:46Z</time>
      </trkpt>
      <trkpt lat="43.45282" lon="5.25467">
        <ele>173.8</ele>
        <time>2025-10-05T21:40:46Z</time>
      </trkpt>
      <trkpt lat="43.45289" lon="5.25465">
        <ele>174</ele>
        <time>2025-10-05T21:40:46Z</time>
      </trkpt>
      <trkpt lat="43.45298" lon="5.25464">
        <ele>174.2</ele>
        <time>2025-10-05T21:40:46Z</time>
      </trkpt>
      <trkpt lat="43.45304" lon="5.25465">
        <ele>174.6</ele>
        <time>2025-10-05T21:40:46Z</time>
      </trkpt>
      <trkpt lat="43.45313" lon="5.25466">
        <ele>174.9</ele>
        <time>2025-10-05T21:40:46Z</time>
      </trkpt>
      <trkpt lat="43.45316" lon="5.25468">
        <ele>175.1</ele>
        <time>2025-10-05T21:40:46Z</time>
      </trkpt>
      <trkpt lat="43.45321" lon="5.25469">
        <ele>175.2</ele>
        <time>2025-10-05T21:40:46Z</time>
      </trkpt>
      <trkpt lat="43.45326" lon="5.25466">
        <ele>175.3</ele>
        <time>2025-10-05T21:40:46Z</time>
      </trkpt>
      <trkpt lat="43.45333" lon="5.25462">
        <ele>175.2</ele>
        <time>2025-10-05T21:40:46Z</time>
      </trkpt>
      <trkpt lat="43.45337" lon="5.2546">
        <ele>175.2</ele>
        <time>2025-10-05T21:40:46Z</time>
      </trkpt>
      <trkpt lat="43.45352" lon="5.25457">
        <ele>175.4</ele>
        <time>2025-10-05T21:40:46Z</time>
      </trkpt>
      <trkpt lat="43.45357" lon="5.25459">
        <ele>175.6</ele>
        <time>2025-10-05T21:40:46Z</time>
      </trkpt>
      <trkpt lat="43.4536" lon="5.2546">
        <ele>175.5</ele>
        <time>2025-10-05T21:40:46Z</time>
      </trkpt>
      <trkpt lat="43.45364" lon="5.2546">
        <ele>175.7</ele>
        <time>2025-10-05T21:40:46Z</time>
      </trkpt>
      <trkpt lat="43.4537" lon="5.25461">
        <ele>176.1</ele>
        <time>2025-10-05T21:40:46Z</time>
      </trkpt>
      <trkpt lat="43.45375" lon="5.25463">
        <ele>176.3</ele>
        <time>2025-10-05T21:40:46Z</time>
      </trkpt>
      <trkpt lat="43.45379" lon="5.25463">
        <ele>176.2</ele>
        <time>2025-10-05T21:40:46Z</time>
      </trkpt>
      <trkpt lat="43.45384" lon="5.25463">
        <ele>176.4</ele>
        <time>2025-10-05T21:40:46Z</time>
      </trkpt>
      <trkpt lat="43.45397" lon="5.25462">
        <ele>176.5</ele>
        <time>2025-10-05T21:40:46Z</time>
      </trkpt>
      <trkpt lat="43.45405" lon="5.25464">
        <ele>176.7</ele>
        <time>2025-10-05T21:40:46Z</time>
      </trkpt>
      <trkpt lat="43.45415" lon="5.25466">
        <ele>176.9</ele>
        <time>2025-10-05T21:40:46Z</time>
      </trkpt>
      <trkpt lat="43.45418" lon="5.25469">
        <ele>177.1</ele>
        <time>2025-10-05T21:40:46Z</time>
      </trkpt>
      <trkpt lat="43.45424" lon="5.25471">
        <ele>177.4</ele>
        <time>2025-10-05T21:40:46Z</time>
      </trkpt>
      <trkpt lat="43.45429" lon="5.25474">
        <ele>177.7</ele>
        <time>2025-10-05T21:40:46Z</time>
      </trkpt>
      <trkpt lat="43.45434" lon="5.25476">
        <ele>177.7</ele>
        <time>2025-10-05T21:40:46Z</time>
      </trkpt>
      <trkpt lat="43.45438" lon="5.25481">
        <ele>178.2</ele>
        <time>2025-10-05T21:40:46Z</time>
      </trkpt>
      <trkpt lat="43.45443" lon="5.25484">
        <ele>178.6</ele>
        <time>2025-10-05T21:40:46Z</time>
      </trkpt>
      <trkpt lat="43.4545" lon="5.25485">
        <ele>178.7</ele>
        <time>2025-10-05T21:40:46Z</time>
      </trkpt>
      <trkpt lat="43.45458" lon="5.25482">
        <ele>178.8</ele>
        <time>2025-10-05T21:40:46Z</time>
      </trkpt>
      <trkpt lat="43.45465" lon="5.2548">
        <ele>178.9</ele>
        <time>2025-10-05T21:40:46Z</time>
      </trkpt>
      <trkpt lat="43.45471" lon="5.25478">
        <ele>178.7</ele>
        <time>2025-10-05T21:40:46Z</time>
      </trkpt>
      <trkpt lat="43.45478" lon="5.25476">
        <ele>179.3</ele>
        <time>2025-10-05T21:40:46Z</time>
      </trkpt>
      <trkpt lat="43.45483" lon="5.25478">
        <ele>178.8</ele>
        <time>2025-10-05T21:40:46Z</time>
      </trkpt>
      <trkpt lat="43.45487" lon="5.25481">
        <ele>179.3</ele>
        <time>2025-10-05T21:40:46Z</time>
      </trkpt>
      <trkpt lat="43.45493" lon="5.25483">
        <ele>179.1</ele>
        <time>2025-10-05T21:40:46Z</time>
      </trkpt>
      <trkpt lat="43.455" lon="5.25481">
        <ele>178.7</ele>
        <time>2025-10-05T21:40:46Z</time>
      </trkpt>
      <trkpt lat="43.45509" lon="5.25481">
        <ele>178.2</ele>
        <time>2025-10-05T21:40:46Z</time>
      </trkpt>
      <trkpt lat="43.45516" lon="5.25478">
        <ele>178.1</ele>
        <time>2025-10-05T21:40:46Z</time>
      </trkpt>
      <trkpt lat="43.45527" lon="5.25474">
        <ele>178.4</ele>
        <time>2025-10-05T21:40:46Z</time>
      </trkpt>
      <trkpt lat="43.45541" lon="5.25472">
        <ele>178.1</ele>
        <time>2025-10-05T21:40:46Z</time>
      </trkpt>
      <trkpt lat="43.4555" lon="5.25469">
        <ele>178.1</ele>
        <time>2025-10-05T21:40:46Z</time>
      </trkpt>
      <trkpt lat="43.45556" lon="5.25464">
        <ele>177.9</ele>
        <time>2025-10-05T21:40:46Z</time>
      </trkpt>
      <trkpt lat="43.45563" lon="5.25458">
        <ele>177.4</ele>
        <time>2025-10-05T21:40:46Z</time>
      </trkpt>
      <trkpt lat="43.45569" lon="5.25455">
        <ele>177.1</ele>
        <time>2025-10-05T21:40:46Z</time>
      </trkpt>
      <trkpt lat="43.45579" lon="5.25455">
        <ele>177</ele>
        <time>2025-10-05T21:40:46Z</time>
      </trkpt>
      <trkpt lat="43.45592" lon="5.25455">
        <ele>177.3</ele>
        <time>2025-10-05T21:40:46Z</time>
      </trkpt>
      <trkpt lat="43.45598" lon="5.25452">
        <ele>177.4</ele>
        <time>2025-10-05T21:40:46Z</time>
      </trkpt>
      <trkpt lat="43.45613" lon="5.25446">
        <ele>177.5</ele>
        <time>2025-10-05T21:40:46Z</time>
      </trkpt>
      <trkpt lat="43.4562" lon="5.25446">
        <ele>177.8</ele>
        <time>2025-10-05T21:40:46Z</time>
      </trkpt>
      <trkpt lat="43.45633" lon="5.25447">
        <ele>178.2</ele>
        <time>2025-10-05T21:40:46Z</time>
      </trkpt>
      <trkpt lat="43.4565" lon="5.25444">
        <ele>177.3</ele>
        <time>2025-10-05T21:40:46Z</time>
      </trkpt>
      <trkpt lat="43.45658" lon="5.25443">
        <ele>178.1</ele>
        <time>2025-10-05T21:40:46Z</time>
      </trkpt>
      <trkpt lat="43.45663" lon="5.25446">
        <ele>177.4</ele>
        <time>2025-10-05T21:40:46Z</time>
      </trkpt>
      <trkpt lat="43.45667" lon="5.25456">
        <ele>177</ele>
        <time>2025-10-05T21:40:46Z</time>
      </trkpt>
      <trkpt lat="43.45673" lon="5.25456">
        <ele>177.7</ele>
        <time>2025-10-05T21:40:46Z</time>
      </trkpt>
      <trkpt lat="43.45682" lon="5.25457">
        <ele>177.2</ele>
        <time>2025-10-05T21:40:46Z</time>
      </trkpt>
      <trkpt lat="43.4569" lon="5.25454">
        <ele>177.3</ele>
        <time>2025-10-05T21:40:46Z</time>
      </trkpt>
      <trkpt lat="43.457" lon="5.2545">
        <ele>177.8</ele>
        <time>2025-10-05T21:40:46Z</time>
      </trkpt>
      <trkpt lat="43.45711" lon="5.25442">
        <ele>177.8</ele>
        <time>2025-10-05T21:40:46Z</time>
      </trkpt>
      <trkpt lat="43.45718" lon="5.2544">
        <ele>178.3</ele>
        <time>2025-10-05T21:40:46Z</time>
      </trkpt>
      <trkpt lat="43.45726" lon="5.25438">
        <ele>178.2</ele>
        <time>2025-10-05T21:40:46Z</time>
      </trkpt>
      <trkpt lat="43.45735" lon="5.25434">
        <ele>178</ele>
        <time>2025-10-05T21:40:46Z</time>
      </trkpt>
      <trkpt lat="43.45749" lon="5.25431">
        <ele>178.1</ele>
        <time>2025-10-05T21:40:46Z</time>
      </trkpt>
      <trkpt lat="43.45762" lon="5.25426">
        <ele>178.1</ele>
        <time>2025-10-05T21:40:46Z</time>
      </trkpt>
      <trkpt lat="43.45771" lon="5.25422">
        <ele>178</ele>
        <time>2025-10-05T21:40:46Z</time>
      </trkpt>
      <trkpt lat="43.45781" lon="5.25421">
        <ele>177.8</ele>
        <time>2025-10-05T21:40:46Z</time>
      </trkpt>
      <trkpt lat="43.45795" lon="5.25417">
        <ele>178</ele>
        <time>2025-10-05T21:40:46Z</time>
      </trkpt>
      <trkpt lat="43.45814" lon="5.25416">
        <ele>177.7</ele>
        <time>2025-10-05T21:40:46Z</time>
      </trkpt>
      <trkpt lat="43.45835" lon="5.25417">
        <ele>177.8</ele>
        <time>2025-10-05T21:40:46Z</time>
      </trkpt>
      <trkpt lat="43.45849" lon="5.25419">
        <ele>178</ele>
        <time>2025-10-05T21:40:46Z</time>
      </trkpt>
      <trkpt lat="43.45857" lon="5.25424">
        <ele>178.2</ele>
        <time>2025-10-05T21:40:46Z</time>
      </trkpt>
      <trkpt lat="43.45868" lon="5.25438">
        <ele>177.5</ele>
        <time>2025-10-05T21:40:46Z</time>
      </trkpt>
      <trkpt lat="43.45879" lon="5.25456">
        <ele>177.5</ele>
        <time>2025-10-05T21:40:46Z</time>
      </trkpt>
      <trkpt lat="43.45887" lon="5.25454">
        <ele>177.1</ele>
        <time>2025-10-05T21:40:46Z</time>
      </trkpt>
      <trkpt lat="43.45893" lon="5.2545">
        <ele>177.3</ele>
        <time>2025-10-05T21:40:46Z</time>
      </trkpt>
      <trkpt lat="43.45903" lon="5.25443">
        <ele>177.9</ele>
        <time>2025-10-05T21:40:46Z</time>
      </trkpt>
      <trkpt lat="43.45916" lon="5.25432">
        <ele>178.2</ele>
        <time>2025-10-05T21:40:46Z</time>
      </trkpt>
      <trkpt lat="43.45925" lon="5.2543">
        <ele>178.2</ele>
        <time>2025-10-05T21:40:46Z</time>
      </trkpt>
      <trkpt lat="43.45933" lon="5.25426">
        <ele>178.5</ele>
        <time>2025-10-05T21:40:46Z</time>
      </trkpt>
      <trkpt lat="43.4594" lon="5.25425">
        <ele>178.2</ele>
        <time>2025-10-05T21:40:46Z</time>
      </trkpt>
      <trkpt lat="43.45952" lon="5.25422">
        <ele>178.3</ele>
        <time>2025-10-05T21:40:46Z</time>
      </trkpt>
      <trkpt lat="43.45974" lon="5.25416">
        <ele>178.2</ele>
        <time>2025-10-05T21:40:46Z</time>
      </trkpt>
      <trkpt lat="43.46006" lon="5.25408">
        <ele>178.1</ele>
        <time>2025-10-05T21:40:46Z</time>
      </trkpt>
      <trkpt lat="43.46038" lon="5.25394">
        <ele>178.4</ele>
        <time>2025-10-05T21:40:46Z</time>
      </trkpt>
      <trkpt lat="43.46046" lon="5.25394">
        <ele>178.5</ele>
        <time>2025-10-05T21:40:46Z</time>
      </trkpt>
      <trkpt lat="43.46053" lon="5.25393">
        <ele>178.2</ele>
        <time>2025-10-05T21:40:46Z</time>
      </trkpt>
      <trkpt lat="43.46052" lon="5.25403">
        <ele>178.2</ele>
        <time>2025-10-05T21:40:46Z</time>
      </trkpt>
      <trkpt lat="43.46051" lon="5.25408">
        <ele>178.1</ele>
        <time>2025-10-05T21:40:46Z</time>
      </trkpt>
      <trkpt lat="43.46045" lon="5.25418">
        <ele>178.2</ele>
        <time>2025-10-05T21:40:46Z</time>
      </trkpt>
      <trkpt lat="43.46038" lon="5.2543">
        <ele>178</ele>
        <time>2025-10-05T21:40:46Z</time>
      </trkpt>
      <trkpt lat="43.46032" lon="5.25442">
        <ele>178.4</ele>
        <time>2025-10-05T21:40:46Z</time>
      </trkpt>
      <trkpt lat="43.46026" lon="5.25456">
        <ele>178.4</ele>
        <time>2025-10-05T21:40:46Z</time>
      </trkpt>
      <trkpt lat="43.46018" lon="5.25478">
        <ele>178.7</ele>
        <time>2025-10-05T21:40:46Z</time>
      </trkpt>
      <trkpt lat="43.4601" lon="5.2552">
        <ele>178.8</ele>
        <time>2025-10-05T21:40:46Z</time>
      </trkpt>
      <trkpt lat="43.46003" lon="5.25541">
        <ele>179.1</ele>
        <time>2025-10-05T21:40:46Z</time>
      </trkpt>
      <trkpt lat="43.46001" lon="5.25558">
        <ele>179</ele>
        <time>2025-10-05T21:40:46Z</time>
      </trkpt>
      <trkpt lat="43.46001" lon="5.25568">
        <ele>179.2</ele>
        <time>2025-10-05T21:40:46Z</time>
      </trkpt>
      <trkpt lat="43.46002" lon="5.25604">
        <ele>179.3</ele>
        <time>2025-10-05T21:40:46Z</time>
      </trkpt>
      <trkpt lat="43.46002" lon="5.25617">
        <ele>179.5</ele>
        <time>2025-10-05T21:40:46Z</time>
      </trkpt>
      <trkpt lat="43.46" lon="5.25629">
        <ele>179.3</ele>
        <time>2025-10-05T21:40:46Z</time>
      </trkpt>
      <trkpt lat="43.45997" lon="5.2564">
        <ele>179.3</ele>
        <time>2025-10-05T21:40:46Z</time>
      </trkpt>
      <trkpt lat="43.45994" lon="5.25661">
        <ele>179.2</ele>
        <time>2025-10-05T21:40:46Z</time>
      </trkpt>
      <trkpt lat="43.45994" lon="5.25669">
        <ele>179</ele>
        <time>2025-10-05T21:40:46Z</time>
      </trkpt>
      <trkpt lat="43.45996" lon="5.25691">
        <ele>179</ele>
        <time>2025-10-05T21:40:46Z</time>
      </trkpt>
      <trkpt lat="43.45994" lon="5.25744">
        <ele>178.6</ele>
        <time>2025-10-05T21:40:46Z</time>
      </trkpt>
      <trkpt lat="43.45994" lon="5.2575">
        <ele>178.5</ele>
        <time>2025-10-05T21:40:46Z</time>
      </trkpt>
      <trkpt lat="43.45992" lon="5.25765">
        <ele>178.7</ele>
        <time>2025-10-05T21:40:46Z</time>
      </trkpt>
      <trkpt lat="43.45981" lon="5.25799">
        <ele>179.2</ele>
        <time>2025-10-05T21:40:46Z</time>
      </trkpt>
      <trkpt lat="43.4597" lon="5.25825">
        <ele>179.2</ele>
        <time>2025-10-05T21:40:46Z</time>
      </trkpt>
      <trkpt lat="43.45962" lon="5.25849">
        <ele>179.3</ele>
        <time>2025-10-05T21:40:46Z</time>
      </trkpt>
      <trkpt lat="43.45956" lon="5.25867">
        <ele>179</ele>
        <time>2025-10-05T21:40:46Z</time>
      </trkpt>
      <trkpt lat="43.45945" lon="5.25929">
        <ele>179.6</ele>
        <time>2025-10-05T21:40:46Z</time>
      </trkpt>
      <trkpt lat="43.45943" lon="5.25955">
        <ele>179.7</ele>
        <time>2025-10-05T21:40:46Z</time>
      </trkpt>
      <trkpt lat="43.45943" lon="5.25967">
        <ele>179.9</ele>
        <time>2025-10-05T21:40:46Z</time>
      </trkpt>
      <trkpt lat="43.45941" lon="5.25999">
        <ele>179.4</ele>
        <time>2025-10-05T21:40:46Z</time>
      </trkpt>
      <trkpt lat="43.4594" lon="5.26032">
        <ele>180.1</ele>
        <time>2025-10-05T21:40:46Z</time>
      </trkpt>
      <trkpt lat="43.45942" lon="5.26061">
        <ele>180</ele>
        <time>2025-10-05T21:40:46Z</time>
      </trkpt>
      <trkpt lat="43.45942" lon="5.26069">
        <ele>180</ele>
        <time>2025-10-05T21:40:46Z</time>
      </trkpt>
      <trkpt lat="43.4594" lon="5.26076">
        <ele>179.8</ele>
        <time>2025-10-05T21:40:46Z</time>
      </trkpt>
      <trkpt lat="43.45938" lon="5.2608">
        <ele>179.5</ele>
        <time>2025-10-05T21:40:46Z</time>
      </trkpt>
      <trkpt lat="43.45932" lon="5.26089">
        <ele>179.1</ele>
        <time>2025-10-05T21:40:46Z</time>
      </trkpt>
      <trkpt lat="43.45923" lon="5.2611">
        <ele>178.6</ele>
        <time>2025-10-05T21:40:46Z</time>
      </trkpt>
      <trkpt lat="43.45912" lon="5.26134">
        <ele>177.7</ele>
        <time>2025-10-05T21:40:46Z</time>
      </trkpt>
      <trkpt lat="43.45902" lon="5.26162">
        <ele>178.1</ele>
        <time>2025-10-05T21:40:46Z</time>
      </trkpt>
      <trkpt lat="43.45897" lon="5.26183">
        <ele>178.3</ele>
        <time>2025-10-05T21:40:46Z</time>
      </trkpt>
      <trkpt lat="43.45891" lon="5.2622">
        <ele>178.4</ele>
        <time>2025-10-05T21:40:46Z</time>
      </trkpt>
      <trkpt lat="43.45886" lon="5.26241">
        <ele>178.8</ele>
        <time>2025-10-05T21:40:46Z</time>
      </trkpt>
      <trkpt lat="43.45883" lon="5.26263">
        <ele>179.2</ele>
        <time>2025-10-05T21:40:46Z</time>
      </trkpt>
      <trkpt lat="43.45878" lon="5.26284">
        <ele>178.8</ele>
        <time>2025-10-05T21:40:46Z</time>
      </trkpt>
      <trkpt lat="43.45876" lon="5.26291">
        <ele>178.3</ele>
        <time>2025-10-05T21:40:46Z</time>
      </trkpt>
      <trkpt lat="43.45874" lon="5.26315">
        <ele>177.9</ele>
        <time>2025-10-05T21:40:46Z</time>
      </trkpt>
      <trkpt lat="43.45871" lon="5.26331">
        <ele>177.1</ele>
        <time>2025-10-05T21:40:46Z</time>
      </trkpt>
      <trkpt lat="43.45869" lon="5.26347">
        <ele>177.2</ele>
        <time>2025-10-05T21:40:46Z</time>
      </trkpt>
      <trkpt lat="43.45865" lon="5.2638">
        <ele>176.7</ele>
        <time>2025-10-05T21:40:46Z</time>
      </trkpt>
      <trkpt lat="43.45865" lon="5.2639">
        <ele>175.6</ele>
        <time>2025-10-05T21:40:46Z</time>
      </trkpt>
      <trkpt lat="43.45864" lon="5.26397">
        <ele>175.9</ele>
        <time>2025-10-05T21:40:46Z</time>
      </trkpt>
      <trkpt lat="43.45866" lon="5.26424">
        <ele>176.1</ele>
        <time>2025-10-05T21:40:46Z</time>
      </trkpt>
      <trkpt lat="43.45868" lon="5.26453">
        <ele>176.1</ele>
        <time>2025-10-05T21:40:46Z</time>
      </trkpt>
      <trkpt lat="43.45869" lon="5.26473">
        <ele>176.2</ele>
        <time>2025-10-05T21:40:46Z</time>
      </trkpt>
      <trkpt lat="43.45873" lon="5.26496">
        <ele>176.4</ele>
        <time>2025-10-05T21:40:46Z</time>
      </trkpt>
      <trkpt lat="43.45876" lon="5.26538">
        <ele>176.7</ele>
        <time>2025-10-05T21:40:46Z</time>
      </trkpt>
      <trkpt lat="43.45878" lon="5.26586">
        <ele>177.6</ele>
        <time>2025-10-05T21:40:46Z</time>
      </trkpt>
      <trkpt lat="43.45877" lon="5.26592">
        <ele>177.7</ele>
        <time>2025-10-05T21:40:46Z</time>
      </trkpt>
      <trkpt lat="43.45872" lon="5.26608">
        <ele>178.6</ele>
        <time>2025-10-05T21:40:46Z</time>
      </trkpt>
      <trkpt lat="43.45871" lon="5.26619">
        <ele>178.8</ele>
        <time>2025-10-05T21:40:46Z</time>
      </trkpt>
      <trkpt lat="43.45869" lon="5.2663">
        <ele>178.4</ele>
        <time>2025-10-05T21:40:46Z</time>
      </trkpt>
      <trkpt lat="43.4587" lon="5.2666">
        <ele>177.3</ele>
        <time>2025-10-05T21:40:46Z</time>
      </trkpt>
      <trkpt lat="43.4587" lon="5.26674">
        <ele>176</ele>
        <time>2025-10-05T21:40:46Z</time>
      </trkpt>
      <trkpt lat="43.45863" lon="5.26674">
        <ele>175.7</ele>
        <time>2025-10-05T21:40:46Z</time>
      </trkpt>
      <trkpt lat="43.45859" lon="5.26674">
        <ele>177.2</ele>
        <time>2025-10-05T21:40:46Z</time>
      </trkpt>
      <trkpt lat="43.45856" lon="5.26674">
        <ele>177.2</ele>
        <time>2025-10-05T21:40:46Z</time>
      </trkpt>
      <trkpt lat="43.45852" lon="5.26676">
        <ele>177.2</ele>
        <time>2025-10-05T21:40:46Z</time>
      </trkpt>
      <trkpt lat="43.45847" lon="5.26675">
        <ele>177</ele>
        <time>2025-10-05T21:40:46Z</time>
      </trkpt>
      <trkpt lat="43.45844" lon="5.26672">
        <ele>176.9</ele>
        <time>2025-10-05T21:40:46Z</time>
      </trkpt>
      <trkpt lat="43.45847" lon="5.26675">
        <ele>176.8</ele>
        <time>2025-10-05T21:40:46Z</time>
      </trkpt>
      <trkpt lat="43.45852" lon="5.26676">
        <ele>176.2</ele>
        <time>2025-10-05T21:40:46Z</time>
      </trkpt>
      <trkpt lat="43.45856" lon="5.26674">
        <ele>173.7</ele>
        <time>2025-10-05T21:40:46Z</time>
      </trkpt>
      <trkpt lat="43.45859" lon="5.26674">
        <ele>173.6</ele>
        <time>2025-10-05T21:40:46Z</time>
      </trkpt>
      <trkpt lat="43.45863" lon="5.26674">
        <ele>172.8</ele>
        <time>2025-10-05T21:40:46Z</time>
      </trkpt>
      <trkpt lat="43.4587" lon="5.26674">
        <ele>172.6</ele>
        <time>2025-10-05T21:40:46Z</time>
      </trkpt>
      <trkpt lat="43.45872" lon="5.2669">
        <ele>172.2</ele>
        <time>2025-10-05T21:40:46Z</time>
      </trkpt>
      <trkpt lat="43.45873" lon="5.26708">
        <ele>171.7</ele>
        <time>2025-10-05T21:40:46Z</time>
      </trkpt>
      <trkpt lat="43.45878" lon="5.26748">
        <ele>171.4</ele>
        <time>2025-10-05T21:40:46Z</time>
      </trkpt>
      <trkpt lat="43.45881" lon="5.26753">
        <ele>171.2</ele>
        <time>2025-10-05T21:40:46Z</time>
      </trkpt>
      <trkpt lat="43.45886" lon="5.26761">
        <ele>170</ele>
        <time>2025-10-05T21:40:46Z</time>
      </trkpt>
      <trkpt lat="43.45896" lon="5.26772">
        <ele>169</ele>
        <time>2025-10-05T21:40:46Z</time>
      </trkpt>
      <trkpt lat="43.45901" lon="5.26782">
        <ele>168.3</ele>
        <time>2025-10-05T21:40:46Z</time>
      </trkpt>
      <trkpt lat="43.45905" lon="5.26793">
        <ele>166.7</ele>
        <time>2025-10-05T21:40:46Z</time>
      </trkpt>
      <trkpt lat="43.45911" lon="5.26821">
        <ele>164.8</ele>
        <time>2025-10-05T21:40:46Z</time>
      </trkpt>
      <trkpt lat="43.45913" lon="5.26844">
        <ele>163.4</ele>
        <time>2025-10-05T21:40:46Z</time>
      </trkpt>
      <trkpt lat="43.45916" lon="5.26856">
        <ele>163.3</ele>
        <time>2025-10-05T21:40:46Z</time>
      </trkpt>
      <trkpt lat="43.45922" lon="5.26877">
        <ele>163</ele>
        <time>2025-10-05T21:40:46Z</time>
      </trkpt>
      <trkpt lat="43.45929" lon="5.26899">
        <ele>162.9</ele>
        <time>2025-10-05T21:40:46Z</time>
      </trkpt>
      <trkpt lat="43.45933" lon="5.26917">
        <ele>163.2</ele>
        <time>2025-10-05T21:40:46Z</time>
      </trkpt>
      <trkpt lat="43.45934" lon="5.26935">
        <ele>163.7</ele>
        <time>2025-10-05T21:40:46Z</time>
      </trkpt>
      <trkpt lat="43.45934" lon="5.26944">
        <ele>163.5</ele>
        <time>2025-10-05T21:40:46Z</time>
      </trkpt>
      <trkpt lat="43.45934" lon="5.26953">
        <ele>163.3</ele>
        <time>2025-10-05T21:40:46Z</time>
      </trkpt>
      <trkpt lat="43.45932" lon="5.26968">
        <ele>163.1</ele>
        <time>2025-10-05T21:40:46Z</time>
      </trkpt>
      <trkpt lat="43.45927" lon="5.26991">
        <ele>162.6</ele>
        <time>2025-10-05T21:40:46Z</time>
      </trkpt>
      <trkpt lat="43.45926" lon="5.26993">
        <ele>161.2</ele>
        <time>2025-10-05T21:40:46Z</time>
      </trkpt>
      <trkpt lat="43.45925" lon="5.26996">
        <ele>159.9</ele>
        <time>2025-10-05T21:40:46Z</time>
      </trkpt>
      <trkpt lat="43.45925" lon="5.27002">
        <ele>158.3</ele>
        <time>2025-10-05T21:40:46Z</time>
      </trkpt>
      <trkpt lat="43.45925" lon="5.27006">
        <ele>157.9</ele>
        <time>2025-10-05T21:40:46Z</time>
      </trkpt>
      <trkpt lat="43.45925" lon="5.27011">
        <ele>157.1</ele>
        <time>2025-10-05T21:40:46Z</time>
      </trkpt>
      <trkpt lat="43.45928" lon="5.2702">
        <ele>156.7</ele>
        <time>2025-10-05T21:40:46Z</time>
      </trkpt>
      <trkpt lat="43.45926" lon="5.27024">
        <ele>156.5</ele>
        <time>2025-10-05T21:40:46Z</time>
      </trkpt>
      <trkpt lat="43.4592" lon="5.27035">
        <ele>156.5</ele>
        <time>2025-10-05T21:40:46Z</time>
      </trkpt>
      <trkpt lat="43.45916" lon="5.27042">
        <ele>156.6</ele>
        <time>2025-10-05T21:40:46Z</time>
      </trkpt>
      <trkpt lat="43.45912" lon="5.27047">
        <ele>156.8</ele>
        <time>2025-10-05T21:40:46Z</time>
      </trkpt>
      <trkpt lat="43.45907" lon="5.27054">
        <ele>157.8</ele>
        <time>2025-10-05T21:40:46Z</time>
      </trkpt>
      <trkpt lat="43.45907" lon="5.27058">
        <ele>158.5</ele>
        <time>2025-10-05T21:40:46Z</time>
      </trkpt>
      <trkpt lat="43.45907" lon="5.27062">
        <ele>158.2</ele>
        <time>2025-10-05T21:40:46Z</time>
      </trkpt>
      <trkpt lat="43.45909" lon="5.27072">
        <ele>157.7</ele>
        <time>2025-10-05T21:40:46Z</time>
      </trkpt>
      <trkpt lat="43.4591" lon="5.27079">
        <ele>157.5</ele>
        <time>2025-10-05T21:40:46Z</time>
      </trkpt>
      <trkpt lat="43.45908" lon="5.27093">
        <ele>157.2</ele>
        <time>2025-10-05T21:40:46Z</time>
      </trkpt>
      <trkpt lat="43.45905" lon="5.27099">
        <ele>157.3</ele>
        <time>2025-10-05T21:40:46Z</time>
      </trkpt>
      <trkpt lat="43.459" lon="5.27108">
        <ele>157.3</ele>
        <time>2025-10-05T21:40:46Z</time>
      </trkpt>
      <trkpt lat="43.45898" lon="5.27115">
        <ele>157.6</ele>
        <time>2025-10-05T21:40:46Z</time>
      </trkpt>
      <trkpt lat="43.45888" lon="5.27148">
        <ele>157.5</ele>
        <time>2025-10-05T21:40:46Z</time>
      </trkpt>
      <trkpt lat="43.45883" lon="5.27159">
        <ele>158.7</ele>
        <time>2025-10-05T21:40:46Z</time>
      </trkpt>
      <trkpt lat="43.4588" lon="5.27164">
        <ele>158.6</ele>
        <time>2025-10-05T21:40:46Z</time>
      </trkpt>
      <trkpt lat="43.45873" lon="5.27173">
        <ele>158.3</ele>
        <time>2025-10-05T21:40:46Z</time>
      </trkpt>
      <trkpt lat="43.45864" lon="5.27178">
        <ele>157.8</ele>
        <time>2025-10-05T21:40:46Z</time>
      </trkpt>
      <trkpt lat="43.45861" lon="5.2718">
        <ele>157.5</ele>
        <time>2025-10-05T21:40:46Z</time>
      </trkpt>
      <trkpt lat="43.45857" lon="5.27183">
        <ele>157.3</ele>
        <time>2025-10-05T21:40:46Z</time>
      </trkpt>
      <trkpt lat="43.45852" lon="5.27191">
        <ele>157.1</ele>
        <time>2025-10-05T21:40:46Z</time>
      </trkpt>
      <trkpt lat="43.45847" lon="5.27197">
        <ele>157</ele>
        <time>2025-10-05T21:40:46Z</time>
      </trkpt>
      <trkpt lat="43.45839" lon="5.27214">
        <ele>156.8</ele>
        <time>2025-10-05T21:40:46Z</time>
      </trkpt>
      <trkpt lat="43.45832" lon="5.27226">
        <ele>157</ele>
        <time>2025-10-05T21:40:46Z</time>
      </trkpt>
      <trkpt lat="43.45821" lon="5.2724">
        <ele>157.1</ele>
        <time>2025-10-05T21:40:46Z</time>
      </trkpt>
      <trkpt lat="43.45814" lon="5.27246">
        <ele>157.3</ele>
        <time>2025-10-05T21:40:46Z</time>
      </trkpt>
      <trkpt lat="43.45809" lon="5.27256">
        <ele>157.5</ele>
        <time>2025-10-05T21:40:46Z</time>
      </trkpt>
      <trkpt lat="43.45807" lon="5.27269">
        <ele>157.8</ele>
        <time>2025-10-05T21:40:46Z</time>
      </trkpt>
      <trkpt lat="43.45807" lon="5.27285">
        <ele>158.3</ele>
        <time>2025-10-05T21:40:46Z</time>
      </trkpt>
      <trkpt lat="43.45807" lon="5.27301">
        <ele>158.6</ele>
        <time>2025-10-05T21:40:46Z</time>
      </trkpt>
      <trkpt lat="43.45806" lon="5.27317">
        <ele>158.2</ele>
        <time>2025-10-05T21:40:46Z</time>
      </trkpt>
      <trkpt lat="43.45802" lon="5.27342">
        <ele>157.4</ele>
        <time>2025-10-05T21:40:46Z</time>
      </trkpt>
      <trkpt lat="43.45796" lon="5.27366">
        <ele>154.1</ele>
        <time>2025-10-05T21:40:46Z</time>
      </trkpt>
      <trkpt lat="43.45795" lon="5.2738">
        <ele>153.4</ele>
        <time>2025-10-05T21:40:46Z</time>
      </trkpt>
      <trkpt lat="43.45795" lon="5.27392">
        <ele>152.6</ele>
        <time>2025-10-05T21:40:46Z</time>
      </trkpt>
      <trkpt lat="43.45796" lon="5.27404">
        <ele>151.9</ele>
        <time>2025-10-05T21:40:46Z</time>
      </trkpt>
      <trkpt lat="43.45798" lon="5.27411">
        <ele>151.5</ele>
        <time>2025-10-05T21:40:46Z</time>
      </trkpt>
      <trkpt lat="43.45805" lon="5.27422">
        <ele>151.5</ele>
        <time>2025-10-05T21:40:46Z</time>
      </trkpt>
      <trkpt lat="43.45809" lon="5.27428">
        <ele>151.8</ele>
        <time>2025-10-05T21:40:46Z</time>
      </trkpt>
      <trkpt lat="43.45818" lon="5.27438">
        <ele>152.5</ele>
        <time>2025-10-05T21:40:46Z</time>
      </trkpt>
      <trkpt lat="43.45823" lon="5.27442">
        <ele>152.3</ele>
        <time>2025-10-05T21:40:46Z</time>
      </trkpt>
      <trkpt lat="43.45831" lon="5.27443">
        <ele>150.4</ele>
        <time>2025-10-05T21:40:46Z</time>
      </trkpt>
      <trkpt lat="43.45837" lon="5.27445">
        <ele>148.9</ele>
        <time>2025-10-05T21:40:46Z</time>
      </trkpt>
      <trkpt lat="43.45841" lon="5.27449">
        <ele>147.5</ele>
        <time>2025-10-05T21:40:46Z</time>
      </trkpt>
      <trkpt lat="43.45843" lon="5.27453">
        <ele>145.5</ele>
        <time>2025-10-05T21:40:46Z</time>
      </trkpt>
      <trkpt lat="43.45843" lon="5.27462">
        <ele>144.6</ele>
        <time>2025-10-05T21:40:46Z</time>
      </trkpt>
      <trkpt lat="43.45842" lon="5.27469">
        <ele>143.8</ele>
        <time>2025-10-05T21:40:46Z</time>
      </trkpt>
      <trkpt lat="43.45841" lon="5.27474">
        <ele>141.8</ele>
        <time>2025-10-05T21:40:46Z</time>
      </trkpt>
      <trkpt lat="43.4584" lon="5.27478">
        <ele>138.6</ele>
        <time>2025-10-05T21:40:46Z</time>
      </trkpt>
      <trkpt lat="43.45822" lon="5.27482">
        <ele>137.6</ele>
        <time>2025-10-05T21:40:46Z</time>
      </trkpt>
      <trkpt lat="43.45802" lon="5.27482">
        <ele>137.9</ele>
        <time>2025-10-05T21:40:46Z</time>
      </trkpt>
      <trkpt lat="43.45772" lon="5.27475">
        <ele>136</ele>
        <time>2025-10-05T21:40:46Z</time>
      </trkpt>
      <trkpt lat="43.45756" lon="5.27476">
        <ele>135.3</ele>
        <time>2025-10-05T21:40:46Z</time>
      </trkpt>
      <trkpt lat="43.45734" lon="5.27476">
        <ele>136.1</ele>
        <time>2025-10-05T21:40:46Z</time>
      </trkpt>
      <trkpt lat="43.45727" lon="5.27477">
        <ele>137.1</ele>
        <time>2025-10-05T21:40:46Z</time>
      </trkpt>
      <trkpt lat="43.45719" lon="5.27479">
        <ele>137.3</ele>
        <time>2025-10-05T21:40:46Z</time>
      </trkpt>
      <trkpt lat="43.45711" lon="5.27482">
        <ele>137.6</ele>
        <time>2025-10-05T21:40:46Z</time>
      </trkpt>
      <trkpt lat="43.45707" lon="5.27482">
        <ele>137.9</ele>
        <time>2025-10-05T21:40:46Z</time>
      </trkpt>
      <trkpt lat="43.45671" lon="5.27474">
        <ele>138.3</ele>
        <time>2025-10-05T21:40:46Z</time>
      </trkpt>
      <trkpt lat="43.45666" lon="5.27474">
        <ele>139.3</ele>
        <time>2025-10-05T21:40:46Z</time>
      </trkpt>
      <trkpt lat="43.45645" lon="5.27483">
        <ele>139.9</ele>
        <time>2025-10-05T21:40:46Z</time>
      </trkpt>
      <trkpt lat="43.45633" lon="5.27487">
        <ele>140.1</ele>
        <time>2025-10-05T21:40:46Z</time>
      </trkpt>
      <trkpt lat="43.4562" lon="5.27493">
        <ele>141.6</ele>
        <time>2025-10-05T21:40:46Z</time>
      </trkpt>
      <trkpt lat="43.45615" lon="5.27496">
        <ele>142</ele>
        <time>2025-10-05T21:40:46Z</time>
      </trkpt>
      <trkpt lat="43.45603" lon="5.27506">
        <ele>142.9</ele>
        <time>2025-10-05T21:40:46Z</time>
      </trkpt>
      <trkpt lat="43.45599" lon="5.27511">
        <ele>143.2</ele>
        <time>2025-10-05T21:40:46Z</time>
      </trkpt>
      <trkpt lat="43.45598" lon="5.27514">
        <ele>143.9</ele>
        <time>2025-10-05T21:40:46Z</time>
      </trkpt>
      <trkpt lat="43.45597" lon="5.27518">
        <ele>143.9</ele>
        <time>2025-10-05T21:40:46Z</time>
      </trkpt>
      <trkpt lat="43.45597" lon="5.27535">
        <ele>144.7</ele>
        <time>2025-10-05T21:40:46Z</time>
      </trkpt>
      <trkpt lat="43.45587" lon="5.27564">
        <ele>145.1</ele>
        <time>2025-10-05T21:40:46Z</time>
      </trkpt>
      <trkpt lat="43.45587" lon="5.2757">
        <ele>145.6</ele>
        <time>2025-10-05T21:40:46Z</time>
      </trkpt>
      <trkpt lat="43.45587" lon="5.27579">
        <ele>146</ele>
        <time>2025-10-05T21:40:46Z</time>
      </trkpt>
      <trkpt lat="43.45584" lon="5.27619">
        <ele>146.4</ele>
        <time>2025-10-05T21:40:46Z</time>
      </trkpt>
    </trkseg>
  </trk>
</gpx>